GFSFLT1_prec_precacc24_057.txt.gz
Total_Precipitation_Accumulation
0.00 0.00 0.00 0.00 0.00 0.00 0.00 0.00 0.02 0.04 0.04 0.00 0.00 0.02 0.03 0.03 0.06 0.03 0.08 0.10 0.08 0.07 0.05 0.03 0.04 0.01 0.00 0.00 0.00 0.00 0.00 0.00
0.00 0.00 0.00 0.00 0.00 0.00 0.00 0.00 0.01 0.08 0.02 0.00 0.00 0.00 0.01 0.01 0.04 0.01 0.04 0.07 0.04 0.07 0.09 0.07 0.08 0.00 0.00 0.00 0.00 0.00 0.00 0.00
0.00 0.00 0.00 0.00 0.00 0.00 0.02 0.01 0.01 0.07 0.03 0.00 0.00 0.00 0.00 0.00 0.01 0.03 0.06 0.10 0.04 0.04 0.07 0.04 0.03 0.00 0.00 0.00 0.00 0.00 0.00 0.00
0.00 0.00 0.00 0.00 0.00 0.00 0.01 0.04 0.02 0.04 0.00 0.00 0.00 0.00 0.00 0.00 0.01 0.03 0.04 0.04 0.03 0.00 0.04 0.01 0.00 0.00 0.00 0.00 0.00 0.00 0.00 0.00
0.00 0.00 0.00 0.00 0.01 0.02 0.03 0.06 0.07 0.02 0.00 0.01 0.00 0.00 0.00 0.02 0.06 0.03 0.04 0.05 0.05 0.02 0.01 0.00 0.00 0.00 0.00 0.00 0.00 0.00 0.00 0.00
0.01 0.01 0.02 0.04 0.04 0.05 0.06 0.09 0.12 0.03 0.01 0.00 0.02 0.01 0.01 0.03 0.04 0.05 0.03 0.02 0.03 0.03 0.01 0.03 0.01 0.01 0.01 0.00 0.00 0.00 0.00 0.00
0.03 0.04 0.06 0.04 0.06 0.19 0.10 0.10 0.08 0.06 0.04 0.01 0.06 0.13 0.08 0.06 0.05 0.04 0.05 0.04 0.01 0.04 0.04 0.03 0.04 0.04 0.05 0.04 0.04 0.04 0.04 0.02
0.01 0.02 0.05 0.04 0.08 0.20 0.10 0.04 0.06 0.04 0.03 0.06 0.10 0.21 0.17 0.17 0.09 0.06 0.13 0.08 0.03 0.07 0.14 0.08 0.05 0.07 0.06 0.08 0.09 0.06 0.05 0.02
0.01 0.02 0.05 0.07 0.17 0.18 0.08 0.03 0.06 0.06 0.13 0.25 0.22 0.21 0.28 0.40 0.30 0.15 0.24 0.14 0.10 0.12 0.13 0.21 0.13 0.11 0.10 0.07 0.05 0.06 0.07 0.09
0.00 0.01 0.00 0.02 0.23 0.17 0.04 0.02 0.02 0.03 0.15 0.26 0.15 0.36 0.63 0.50 0.40 0.34 0.33 0.34 0.34 0.29 0.33 0.34 0.27 0.16 0.08 0.05 0.06 0.05 0.03 0.06
0.00 0.00 0.00 0.01 0.06 0.05 0.01 0.02 0.06 0.04 0.05 0.08 0.11 0.18 0.30 0.36 0.32 0.27 0.40 0.50 0.35 0.43 0.41 0.29 0.13 0.04 0.02 0.02 0.02 0.05 0.13 0.19
0.00 0.00 0.00 0.00 0.00 0.00 0.00 0.01 0.08 0.12 0.30 0.33 0.25 0.34 0.34 0.42 0.31 0.37 0.28 0.24 0.35 0.37 0.17 0.05 0.03 0.03 0.05 0.10 0.16 0.20 0.22 0.25
0.00 0.00 0.00 0.00 0.00 0.00 0.01 0.01 0.12 0.27 0.67 0.85 0.57 0.67 0.55 0.44 0.33 0.24 0.25 0.17 0.12 0.08 0.06 0.09 0.12 0.18 0.26 0.30 0.24 0.21 0.19 0.16
0.00 0.00 0.00 0.00 0.01 0.01 0.04 0.13 0.25 0.52 0.67 0.69 0.46 0.50 0.55 0.46 0.37 0.20 0.12 0.12 0.10 0.08 0.08 0.11 0.16 0.17 0.14 0.12 0.13 0.15 0.15 0.10
0.00 0.01 0.00 0.00 0.01 0.06 0.13 0.28 0.32 0.43 0.32 0.26 0.17 0.19 0.37 0.18 0.15 0.12 0.08 0.06 0.05 0.05 0.04 0.05 0.05 0.10 0.12 0.13 0.13 0.12 0.07 0.02
0.01 0.00 0.00 0.01 0.04 0.09 0.10 0.15 0.19 0.26 0.31 0.28 0.22 0.10 0.09 0.07 0.06 0.06 0.04 0.05 0.03 0.03 0.05 0.11 0.14 0.12 0.11 0.09 0.05 0.02 0.01 0.01
0.00 0.00 0.00 0.00 0.01 0.03 0.08 0.10 0.14 0.10 0.07 0.10 0.06 0.03 0.05 0.05 0.05 0.03 0.02 0.03 0.04 0.07 0.17 0.19 0.15 0.12 0.11 0.07 0.04 0.02 0.01 0.00
0.00 0.00 0.01 0.01 0.03 0.08 0.04 0.04 0.04 0.04 0.07 0.09 0.04 0.02 0.03 0.02 0.01 0.00 0.01 0.05 0.22 0.31 0.25 0.18 0.11 0.06 0.05 0.02 0.01 0.00 0.00 0.00
0.00 0.00 0.02 0.08 0.10 0.03 0.03 0.03 0.03 0.02 0.02 0.02 0.03 0.01 0.01 0.00 0.00 0.02 0.14 0.32 0.33 0.23 0.12 0.04 0.00 0.00 0.00 0.00 0.00 0.00 0.00 0.00

GFSFLT1_prec_precacc24_060.txt.gz
Total_Precipitation_Accumulation
0.00 0.00 0.00 0.00 0.00 0.00 0.00 0.01 0.02 0.04 0.04 0.00 0.00 0.02 0.03 0.03 0.06 0.03 0.08 0.10 0.08 0.07 0.05 0.03 0.04 0.05 0.00 0.00 0.00 0.00 0.00 0.00
0.00 0.00 0.00 0.00 0.00 0.00 0.00 0.00 0.01 0.08 0.02 0.00 0.00 0.00 0.01 0.01 0.04 0.01 0.04 0.07 0.04 0.07 0.09 0.07 0.09 0.04 0.01 0.00 0.00 0.00 0.00 0.00
0.00 0.00 0.00 0.00 0.00 0.00 0.01 0.00 0.01 0.07 0.03 0.00 0.00 0.00 0.00 0.00 0.01 0.03 0.06 0.10 0.04 0.04 0.07 0.04 0.03 0.02 0.00 0.00 0.00 0.00 0.00 0.00
0.00 0.00 0.00 0.00 0.00 0.00 0.00 0.02 0.02 0.03 0.00 0.00 0.00 0.00 0.00 0.00 0.01 0.03 0.04 0.04 0.03 0.00 0.04 0.01 0.00 0.00 0.00 0.00 0.00 0.00 0.00 0.00
0.00 0.00 0.00 0.00 0.00 0.00 0.00 0.02 0.05 0.01 0.00 0.01 0.00 0.00 0.00 0.02 0.06 0.03 0.04 0.05 0.05 0.02 0.01 0.01 0.00 0.00 0.00 0.00 0.00 0.00 0.00 0.00
0.01 0.01 0.01 0.01 0.00 0.00 0.01 0.06 0.10 0.03 0.01 0.00 0.02 0.01 0.01 0.03 0.04 0.05 0.03 0.02 0.03 0.03 0.02 0.06 0.02 0.01 0.04 0.05 0.02 0.01 0.01 0.01
0.03 0.03 0.05 0.02 0.01 0.05 0.03 0.08 0.07 0.06 0.04 0.01 0.06 0.13 0.08 0.06 0.05 0.04 0.05 0.04 0.01 0.04 0.05 0.03 0.05 0.04 0.09 0.11 0.08 0.06 0.05 0.04
0.01 0.01 0.05 0.04 0.05 0.13 0.06 0.03 0.06 0.04 0.03 0.06 0.10 0.21 0.17 0.17 0.09 0.06 0.13 0.08 0.03 0.07 0.15 0.11 0.09 0.18 0.19 0.19 0.14 0.09 0.07 0.14
0.00 0.01 0.05 0.07 0.13 0.16 0.07 0.03 0.06 0.06 0.13 0.25 0.22 0.21 0.28 0.40 0.30 0.16 0.24 0.14 0.10 0.12 0.21 0.35 0.31 0.29 0.25 0.17 0.10 0.10 0.10 0.13
0.00 0.00 0.00 0.02 0.20 0.17 0.04 0.02 0.02 0.03 0.15 0.26 0.15 0.36 0.63 0.50 0.40 0.37 0.34 0.35 0.34 0.29 0.36 0.47 0.47 0.36 0.34 0.19 0.12 0.06 0.04 0.07
0.00 0.00 0.00 0.01 0.06 0.05 0.01 0.02 0.06 0.08 0.05 0.08 0.11 0.18 0.30 0.40 0.33 0.37 0.57 0.54 0.35 0.43 0.45 0.43 0.36 0.22 0.14 0.08 0.05 0.06 0.14 0.20
0.00 0.00 0.00 0.00 0.00 0.00 0.00 0.01 0.09 0.16 0.34 0.39 0.26 0.37 0.35 0.58 0.57 0.72 0.57 0.46 0.43 0.49 0.35 0.18 0.08 0.10 0.10 0.11 0.17 0.21 0.22 0.26
0.00 0.00 0.00 0.00 0.00 0.00 0.01 0.01 0.13 0.34 0.93 1.08 0.71 0.85 0.70 0.66 0.75 0.72 0.72 0.50 0.19 0.14 0.16 0.13 0.14 0.19 0.27 0.31 0.25 0.22 0.20 0.18
0.00 0.00 0.00 0.00 0.01 0.01 0.04 0.14 0.30 0.76 0.98 0.95 0.72 0.74 0.67 0.49 0.54 0.42 0.23 0.19 0.15 0.12 0.12 0.13 0.16 0.17 0.14 0.12 0.14 0.16 0.17 0.13
0.00 0.01 0.00 0.00 0.01 0.07 0.14 0.29 0.41 0.75 0.48 0.49 0.36 0.34 0.51 0.26 0.30 0.20 0.12 0.10 0.08 0.09 0.07 0.06 0.05 0.10 0.12 0.13 0.14 0.13 0.07 0.03
0.00 0.00 0.00 0.01 0.04 0.09 0.10 0.15 0.22 0.36 0.38 0.38 0.28 0.16 0.18 0.12 0.16 0.15 0.08 0.07 0.04 0.04 0.07 0.12 0.15 0.13 0.12 0.10 0.06 0.03 0.02 0.01
0.00 0.00 0.00 0.00 0.01 0.02 0.07 0.10 0.18 0.14 0.11 0.15 0.10 0.08 0.11 0.11 0.10 0.07 0.06 0.06 0.06 0.09 0.19 0.21 0.16 0.13 0.13 0.08 0.04 0.02 0.01 0.00
0.00 0.00 0.01 0.01 0.03 0.07 0.03 0.03 0.05 0.05 0.09 0.11 0.06 0.04 0.06 0.06 0.05 0.04 0.03 0.06 0.23 0.33 0.26 0.19 0.12 0.06 0.05 0.02 0.01 0.00 0.00 0.00
0.00 0.00 0.02 0.08 0.10 0.03 0.02 0.01 0.02 0.02 0.03 0.03 0.04 0.02 0.03 0.04 0.04 0.03 0.15 0.32 0.33 0.23 0.12 0.04 0.00 0.00 0.00 0.00 0.00 0.00 0.00 0.00

GFSFLT1_prec_precacc24_066.txt.gz
Total_Precipitation_Accumulation
0.00 0.00 0.00 0.00 0.00 0.00 0.01 0.07 0.13 0.21 0.11 0.13 0.07 0.04 0.02 0.06 0.09 0.04 0.08 0.10 0.08 0.07 0.05 0.03 0.05 0.05 0.00 0.00 0.00 0.00 0.00 0.00
0.00 0.00 0.00 0.00 0.00 0.00 0.00 0.00 0.03 0.12 0.04 0.07 0.05 0.06 0.02 0.02 0.05 0.02 0.05 0.07 0.05 0.07 0.09 0.08 0.10 0.05 0.01 0.00 0.00 0.00 0.00 0.00
0.00 0.00 0.00 0.00 0.00 0.00 0.00 0.00 0.01 0.07 0.03 0.01 0.01 0.04 0.01 0.00 0.01 0.03 0.06 0.10 0.05 0.08 0.09 0.05 0.05 0.04 0.02 0.00 0.00 0.00 0.00 0.00
0.00 0.00 0.00 0.00 0.00 0.00 0.00 0.00 0.00 0.03 0.00 0.00 0.00 0.01 0.01 0.00 0.01 0.04 0.04 0.05 0.05 0.03 0.10 0.07 0.05 0.01 0.00 0.00 0.00 0.01 0.01 0.01
0.00 0.00 0.00 0.00 0.00 0.00 0.00 0.00 0.00 0.00 0.00 0.01 0.00 0.00 0.01 0.02 0.06 0.03 0.04 0.05 0.05 0.02 0.01 0.01 0.02 0.00 0.00 0.00 0.02 0.02 0.03 0.02
0.00 0.00 0.00 0.00 0.00 0.00 0.00 0.00 0.00 0.00 0.00 0.00 0.01 0.00 0.01 0.03 0.04 0.05 0.03 0.02 0.03 0.03 0.02 0.06 0.02 0.01 0.04 0.05 0.04 0.05 0.06 0.05
0.00 0.00 0.00 0.00 0.00 0.00 0.00 0.01 0.00 0.00 0.00 0.00 0.02 0.06 0.02 0.02 0.02 0.02 0.05 0.04 0.01 0.04 0.05 0.03 0.06 0.04 0.09 0.12 0.16 0.14 0.19 0.15
0.00 0.00 0.00 0.00 0.00 0.00 0.00 0.00 0.00 0.00 0.00 0.02 0.06 0.11 0.10 0.11 0.05 0.04 0.11 0.08 0.03 0.07 0.15 0.11 0.08 0.20 0.22 0.29 0.31 0.29 0.32 0.39
0.00 0.00 0.00 0.00 0.00 0.00 0.00 0.00 0.01 0.02 0.11 0.23 0.20 0.16 0.20 0.29 0.23 0.12 0.23 0.14 0.10 0.13 0.21 0.35 0.29 0.28 0.28 0.34 0.44 0.61 0.69 0.62
0.00 0.00 0.00 0.00 0.00 0.01 0.00 0.01 0.00 0.01 0.13 0.25 0.14 0.32 0.54 0.29 0.30 0.33 0.35 0.38 0.36 0.29 0.35 0.43 0.43 0.39 0.50 0.57 0.54 0.38 0.26 0.18
0.00 0.00 0.00 0.00 0.00 0.02 0.02 0.07 0.19 0.17 0.05 0.04 0.04 0.08 0.18 0.29 0.26 0.34 0.57 0.62 0.47 0.51 0.48 0.48 0.42 0.31 0.31 0.34 0.30 0.22 0.23 0.23
0.00 0.00 0.00 0.00 0.00 0.00 0.00 0.01 0.16 0.35 0.54 0.44 0.21 0.29 0.27 0.48 0.53 0.71 0.58 0.54 0.63 0.67 0.47 0.36 0.29 0.42 0.41 0.28 0.28 0.29 0.29 0.31
0.00 0.00 0.00 0.00 0.00 0.00 0.00 0.00 0.11 0.40 1.19 1.24 0.68 0.79 0.70 0.70 0.78 0.76 0.80 0.79 0.73 0.57 0.38 0.29 0.28 0.31 0.45 0.51 0.37 0.29 0.24 0.21
0.00 0.00 0.00 0.00 0.01 0.00 0.01 0.12 0.27 0.78 1.06 1.04 0.80 0.95 1.09 0.91 0.78 0.54 0.33 0.32 0.35 0.31 0.33 0.29 0.29 0.25 0.20 0.19 0.19 0.20 0.19 0.15
0.00 0.00 0.00 0.00 0.00 0.02 0.06 0.23 0.31 0.62 0.45 0.50 0.43 0.43 0.60 0.29 0.31 0.25 0.19 0.13 0.14 0.18 0.14 0.14 0.13 0.15 0.16 0.16 0.18 0.14 0.08 0.03
0.00 0.00 0.00 0.00 0.01 0.01 0.02 0.06 0.14 0.31 0.33 0.35 0.27 0.22 0.24 0.16 0.19 0.18 0.12 0.10 0.12 0.15 0.13 0.12 0.15 0.16 0.18 0.16 0.09 0.05 0.03 0.02
0.00 0.00 0.00 0.00 0.00 0.02 0.05 0.07 0.15 0.11 0.09 0.13 0.09 0.10 0.15 0.14 0.16 0.14 0.13 0.14 0.20 0.20 0.25 0.27 0.22 0.21 0.27 0.17 0.09 0.04 0.02 0.02
0.00 0.00 0.01 0.01 0.03 0.07 0.03 0.03 0.05 0.05 0.07 0.09 0.04 0.04 0.12 0.12 0.11 0.13 0.14 0.15 0.21 0.28 0.32 0.30 0.21 0.14 0.17 0.09 0.06 0.02 0.02 0.02
0.00 0.00 0.02 0.08 0.10 0.03 0.02 0.01 0.01 0.02 0.03 0.04 0.06 0.05 0.10 0.12 0.12 0.11 0.15 0.20 0.29 0.31 0.23 0.12 0.09 0.08 0.10 0.06 0.04 0.01 0.02 0.01

GFSFLT1_prec_precacc24_069.txt.gz
Total_Precipitation_Accumulation
0.00 0.00 0.00 0.00 0.00 0.01 0.01 0.10 0.26 0.33 0.19 0.19 0.10 0.10 0.04 0.06 0.14 0.10 0.09 0.10 0.08 0.07 0.05 0.03 0.05 0.05 0.00 0.00 0.00 0.00 0.00 0.00
0.00 0.00 0.00 0.00 0.00 0.00 0.00 0.00 0.05 0.15 0.06 0.09 0.07 0.08 0.03 0.04 0.07 0.08 0.08 0.07 0.05 0.07 0.09 0.08 0.10 0.05 0.02 0.00 0.01 0.01 0.01 0.00
0.00 0.00 0.00 0.00 0.00 0.00 0.00 0.00 0.01 0.07 0.04 0.02 0.02 0.06 0.05 0.03 0.04 0.07 0.09 0.10 0.05 0.08 0.09 0.05 0.05 0.05 0.05 0.03 0.04 0.02 0.03 0.01
0.00 0.00 0.00 0.00 0.00 0.00 0.00 0.00 0.00 0.03 0.00 0.02 0.02 0.05 0.10 0.05 0.05 0.09 0.08 0.06 0.05 0.03 0.11 0.09 0.08 0.05 0.05 0.06 0.06 0.04 0.03 0.02
0.00 0.00 0.00 0.00 0.00 0.00 0.00 0.00 0.00 0.00 0.00 0.01 0.01 0.01 0.04 0.04 0.01 0.03 0.07 0.07 0.06 0.02 0.02 0.03 0.05 0.05 0.05 0.05 0.06 0.03 0.03 0.03
0.00 0.00 0.00 0.00 0.00 0.00 0.00 0.00 0.00 0.00 0.00 0.00 0.01 0.00 0.00 0.01 0.02 0.04 0.05 0.04 0.04 0.04 0.02 0.07 0.03 0.02 0.05 0.06 0.05 0.05 0.06 0.05
0.00 0.00 0.00 0.00 0.00 0.00 0.00 0.00 0.00 0.00 0.00 0.00 0.02 0.06 0.02 0.01 0.00 0.01 0.04 0.03 0.01 0.04 0.05 0.04 0.06 0.04 0.09 0.12 0.16 0.13 0.19 0.18
0.00 0.00 0.00 0.00 0.00 0.00 0.00 0.00 0.00 0.00 0.00 0.01 0.04 0.10 0.10 0.10 0.03 0.02 0.09 0.06 0.02 0.07 0.15 0.11 0.08 0.20 0.22 0.25 0.25 0.26 0.32 0.41
0.00 0.00 0.00 0.00 0.00 0.00 0.00 0.00 0.00 0.00 0.05 0.19 0.19 0.15 0.19 0.28 0.19 0.08 0.19 0.12 0.08 0.12 0.21 0.35 0.28 0.25 0.24 0.30 0.44 0.61 0.70 0.63
0.00 0.00 0.00 0.00 0.00 0.01 0.00 0.01 0.00 0.00 0.05 0.21 0.13 0.31 0.53 0.25 0.24 0.28 0.31 0.36 0.34 0.28 0.34 0.42 0.42 0.38 0.50 0.57 0.54 0.38 0.26 0.21
0.00 0.00 0.00 0.00 0.00 0.01 0.00 0.07 0.20 0.18 0.05 0.02 0.03 0.06 0.16 0.24 0.17 0.25 0.50 0.59 0.45 0.50 0.47 0.48 0.42 0.31 0.31 0.34 0.30 0.22 0.23 0.25
0.00 0.00 0.00 0.00 0.00 0.00 0.00 0.01 0.16 0.36 0.58 0.45 0.20 0.25 0.19 0.36 0.41 0.62 0.53 0.52 0.62 0.67 0.47 0.35 0.29 0.42 0.46 0.33 0.31 0.31 0.31 0.34
0.00 0.00 0.00 0.00 0.00 0.00 0.00 0.00 0.10 0.38 1.20 1.25 0.66 0.70 0.58 0.59 0.68 0.69 0.77 0.77 0.71 0.56 0.37 0.29 0.30 0.33 0.51 0.65 0.57 0.50 0.47 0.41
0.00 0.00 0.00 0.00 0.01 0.00 0.00 0.09 0.25 0.75 1.02 1.01 0.78 0.92 1.04 0.83 0.70 0.49 0.30 0.31 0.35 0.31 0.32 0.28 0.29 0.29 0.30 0.30 0.31 0.33 0.32 0.27
0.00 0.00 0.00 0.00 0.00 0.01 0.05 0.21 0.30 0.59 0.41 0.47 0.39 0.37 0.53 0.25 0.28 0.23 0.18 0.13 0.14 0.17 0.13 0.13 0.13 0.14 0.17 0.22 0.26 0.25 0.16 0.09
0.00 0.00 0.00 0.00 0.00 0.00 0.02 0.06 0.13 0.30 0.31 0.32 0.24 0.20 0.23 0.15 0.19 0.19 0.12 0.10 0.11 0.15 0.12 0.10 0.11 0.13 0.16 0.18 0.15 0.08 0.05 0.06
0.00 0.00 0.00 0.00 0.00 0.02 0.05 0.07 0.15 0.11 0.09 0.12 0.09 0.10 0.15 0.14 0.16 0.15 0.13 0.14 0.19 0.20 0.20 0.18 0.15 0.17 0.30 0.23 0.13 0.06 0.03 0.03
0.00 0.00 0.01 0.01 0.03 0.07 0.03 0.03 0.05 0.05 0.07 0.09 0.04 0.04 0.12 0.12 0.11 0.13 0.14 0.15 0.21 0.22 0.21 0.23 0.17 0.14 0.24 0.20 0.14 0.04 0.03 0.03
0.00 0.00 0.02 0.08 0.10 0.03 0.02 0.01 0.01 0.02 0.03 0.04 0.06 0.05 0.10 0.12 0.12 0.10 0.13 0.14 0.15 0.17 0.16 0.13 0.13 0.14 0.17 0.10 0.09 0.02 0.03 0.03

GFSFLT1_prec_precacc24_072.txt.gz
Total_Precipitation_Accumulation
0.00 0.00 0.00 0.00 0.00 0.01 0.02 0.10 0.33 0.51 0.31 0.27 0.17 0.20 0.16 0.18 0.22 0.12 0.08 0.09 0.07 0.06 0.05 0.03 0.05 0.05 0.00 0.00 0.00 0.00 0.00 0.00
0.00 0.00 0.00 0.00 0.00 0.01 0.01 0.01 0.08 0.18 0.14 0.13 0.13 0.12 0.08 0.10 0.12 0.10 0.08 0.07 0.04 0.07 0.09 0.08 0.10 0.05 0.02 0.00 0.01 0.03 0.01 0.00
0.00 0.00 0.00 0.00 0.00 0.00 0.00 0.00 0.02 0.07 0.05 0.03 0.06 0.10 0.08 0.05 0.08 0.10 0.11 0.10 0.05 0.08 0.09 0.05 0.05 0.05 0.05 0.03 0.04 0.03 0.05 0.05
0.00 0.00 0.00 0.00 0.00 0.00 0.00 0.00 0.00 0.03 0.00 0.02 0.04 0.08 0.13 0.07 0.08 0.12 0.15 0.07 0.05 0.03 0.11 0.09 0.08 0.05 0.05 0.06 0.06 0.04 0.04 0.05
0.00 0.00 0.00 0.00 0.00 0.00 0.00 0.00 0.00 0.00 0.00 0.01 0.01 0.01 0.04 0.04 0.01 0.06 0.16 0.12 0.06 0.03 0.02 0.04 0.05 0.05 0.08 0.07 0.06 0.04 0.06 0.11
0.00 0.00 0.00 0.00 0.00 0.00 0.00 0.00 0.00 0.00 0.00 0.00 0.01 0.00 0.00 0.02 0.03 0.06 0.14 0.19 0.06 0.05 0.03 0.09 0.05 0.03 0.11 0.13 0.07 0.06 0.07 0.12
0.00 0.00 0.00 0.00 0.00 0.00 0.00 0.00 0.00 0.00 0.00 0.00 0.02 0.05 0.02 0.01 0.01 0.02 0.06 0.10 0.05 0.05 0.05 0.06 0.10 0.08 0.14 0.18 0.21 0.19 0.22 0.21
0.00 0.00 0.00 0.00 0.00 0.00 0.00 0.00 0.00 0.00 0.00 0.00 0.00 0.06 0.08 0.09 0.03 0.01 0.08 0.05 0.01 0.05 0.14 0.11 0.09 0.22 0.25 0.28 0.30 0.31 0.35 0.44
0.00 0.00 0.00 0.00 0.00 0.00 0.00 0.00 0.00 0.00 0.03 0.18 0.14 0.07 0.16 0.27 0.19 0.08 0.18 0.10 0.07 0.10 0.20 0.35 0.29 0.26 0.27 0.33 0.45 0.62 0.70 0.63
0.00 0.00 0.00 0.00 0.00 0.00 0.00 0.01 0.00 0.00 0.03 0.16 0.09 0.21 0.47 0.23 0.23 0.28 0.30 0.32 0.31 0.26 0.33 0.42 0.42 0.38 0.51 0.58 0.54 0.37 0.26 0.21
0.00 0.00 0.00 0.00 0.00 0.00 0.00 0.07 0.20 0.18 0.05 0.01 0.03 0.06 0.15 0.22 0.16 0.23 0.44 0.53 0.41 0.48 0.47 0.48 0.42 0.30 0.31 0.34 0.30 0.20 0.21 0.24
0.00 0.00 0.00 0.00 0.00 0.00 0.00 0.00 0.16 0.36 0.58 0.45 0.20 0.24 0.18 0.34 0.37 0.56 0.48 0.48 0.60 0.65 0.46 0.35 0.29 0.41 0.44 0.30 0.26 0.28 0.30 0.31
0.00 0.00 0.00 0.00 0.00 0.00 0.00 0.00 0.10 0.38 1.20 1.25 0.66 0.70 0.57 0.57 0.65 0.64 0.71 0.72 0.68 0.54 0.35 0.26 0.26 0.32 0.47 0.58 0.51 0.45 0.43 0.44
0.00 0.00 0.00 0.00 0.01 0.00 0.00 0.09 0.25 0.75 1.02 1.01 0.78 0.90 1.03 0.79 0.64 0.43 0.24 0.26 0.33 0.29 0.30 0.26 0.26 0.23 0.23 0.25 0.27 0.34 0.40 0.41
0.00 0.00 0.00 0.00 0.00 0.01 0.05 0.21 0.30 0.58 0.40 0.46 0.38 0.36 0.51 0.22 0.25 0.21 0.16 0.11 0.13 0.17 0.12 0.11 0.10 0.12 0.14 0.17 0.22 0.26 0.24 0.22
0.00 0.00 0.00 0.00 0.00 0.00 0.02 0.04 0.12 0.29 0.29 0.29 0.22 0.19 0.23 0.15 0.19 0.19 0.12 0.10 0.11 0.15 0.11 0.08 0.08 0.10 0.12 0.14 0.13 0.12 0.14 0.17
0.00 0.00 0.00 0.00 0.00 0.01 0.04 0.06 0.15 0.11 0.09 0.12 0.09 0.10 0.15 0.14 0.16 0.15 0.13 0.14 0.19 0.19 0.19 0.17 0.13 0.14 0.25 0.19 0.11 0.05 0.05 0.05
0.00 0.00 0.01 0.01 0.03 0.07 0.03 0.03 0.05 0.05 0.07 0.09 0.04 0.04 0.12 0.12 0.11 0.13 0.14 0.15 0.20 0.21 0.19 0.19 0.15 0.12 0.22 0.19 0.15 0.04 0.04 0.04
0.00 0.00 0.02 0.08 0.10 0.03 0.02 0.01 0.01 0.02 0.03 0.04 0.06 0.05 0.10 0.12 0.12 0.10 0.13 0.13 0.13 0.15 0.14 0.13 0.13 0.14 0.17 0.11 0.12 0.04 0.05 0.06

GFSFLT1_prec_precacc24_075.txt.gz
Total_Precipitation_Accumulation
0.00 0.00 0.00 0.00 0.00 0.01 0.03 0.11 0.32 0.50 0.39 0.32 0.30 0.33 0.22 0.24 0.20 0.10 0.05 0.06 0.06 0.06 0.05 0.03 0.05 0.05 0.00 0.00 0.00 0.00 0.00 0.00
0.00 0.00 0.00 0.00 0.00 0.01 0.01 0.02 0.08 0.14 0.19 0.21 0.18 0.19 0.10 0.13 0.11 0.10 0.06 0.05 0.04 0.07 0.09 0.08 0.10 0.05 0.02 0.00 0.01 0.03 0.01 0.00
0.00 0.00 0.00 0.00 0.00 0.00 0.01 0.01 0.01 0.01 0.03 0.04 0.07 0.10 0.10 0.06 0.08 0.08 0.09 0.08 0.05 0.08 0.09 0.05 0.05 0.05 0.05 0.03 0.04 0.03 0.05 0.05
0.00 0.00 0.00 0.00 0.00 0.00 0.00 0.01 0.00 0.01 0.01 0.03 0.05 0.12 0.22 0.14 0.12 0.12 0.13 0.05 0.05 0.03 0.11 0.09 0.08 0.05 0.05 0.06 0.06 0.05 0.10 0.06
0.00 0.00 0.00 0.00 0.00 0.00 0.00 0.00 0.01 0.00 0.00 0.02 0.01 0.02 0.08 0.08 0.05 0.07 0.15 0.10 0.04 0.02 0.02 0.04 0.05 0.05 0.08 0.07 0.06 0.04 0.16 0.22
0.00 0.00 0.00 0.00 0.00 0.00 0.00 0.00 0.00 0.00 0.00 0.01 0.01 0.00 0.00 0.02 0.06 0.10 0.17 0.21 0.06 0.03 0.03 0.08 0.05 0.03 0.13 0.18 0.11 0.08 0.14 0.23
0.00 0.00 0.00 0.00 0.00 0.00 0.00 0.00 0.00 0.00 0.00 0.00 0.02 0.06 0.02 0.01 0.02 0.03 0.07 0.16 0.10 0.05 0.04 0.04 0.09 0.10 0.17 0.22 0.26 0.25 0.30 0.30
0.00 0.00 0.00 0.00 0.00 0.00 0.00 0.00 0.00 0.00 0.00 0.00 0.00 0.06 0.08 0.09 0.03 0.01 0.08 0.05 0.03 0.05 0.13 0.10 0.09 0.21 0.25 0.31 0.32 0.34 0.40 0.48
0.00 0.00 0.00 0.00 0.00 0.00 0.00 0.00 0.00 0.00 0.00 0.09 0.08 0.06 0.16 0.27 0.19 0.08 0.18 0.09 0.06 0.09 0.18 0.34 0.28 0.26 0.27 0.33 0.46 0.64 0.73 0.67
0.00 0.00 0.00 0.00 0.00 0.00 0.00 0.01 0.00 0.00 0.00 0.04 0.02 0.15 0.46 0.23 0.23 0.27 0.28 0.27 0.28 0.24 0.31 0.41 0.42 0.38 0.51 0.57 0.53 0.38 0.28 0.22
0.00 0.00 0.00 0.00 0.00 0.00 0.00 0.07 0.20 0.18 0.05 0.01 0.03 0.06 0.13 0.21 0.15 0.18 0.36 0.47 0.38 0.46 0.46 0.47 0.41 0.30 0.31 0.36 0.31 0.21 0.20 0.23
0.00 0.00 0.00 0.00 0.00 0.00 0.00 0.00 0.16 0.36 0.58 0.45 0.19 0.23 0.18 0.34 0.36 0.51 0.44 0.46 0.58 0.64 0.45 0.34 0.28 0.41 0.44 0.29 0.25 0.26 0.27 0.27
0.00 0.00 0.00 0.00 0.00 0.00 0.00 0.00 0.10 0.38 1.20 1.25 0.65 0.69 0.57 0.57 0.64 0.64 0.71 0.71 0.67 0.53 0.33 0.22 0.21 0.22 0.33 0.46 0.46 0.41 0.37 0.36
0.00 0.00 0.00 0.00 0.01 0.00 0.00 0.09 0.25 0.75 1.02 1.01 0.77 0.88 1.02 0.79 0.64 0.42 0.23 0.25 0.31 0.26 0.27 0.19 0.16 0.15 0.20 0.23 0.24 0.28 0.31 0.36
0.00 0.00 0.00 0.00 0.00 0.01 0.05 0.21 0.30 0.58 0.40 0.45 0.37 0.35 0.50 0.21 0.24 0.20 0.16 0.11 0.13 0.16 0.12 0.11 0.10 0.11 0.11 0.11 0.15 0.17 0.20 0.21
0.00 0.00 0.00 0.00 0.00 0.00 0.02 0.04 0.11 0.26 0.26 0.27 0.20 0.17 0.22 0.15 0.18 0.18 0.12 0.10 0.11 0.15 0.11 0.08 0.07 0.08 0.10 0.12 0.12 0.12 0.13 0.16
0.00 0.00 0.00 0.00 0.00 0.00 0.03 0.05 0.13 0.10 0.08 0.12 0.08 0.10 0.15 0.14 0.16 0.15 0.13 0.14 0.19 0.19 0.19 0.17 0.13 0.14 0.25 0.18 0.10 0.05 0.04 0.05
0.00 0.00 0.01 0.01 0.03 0.06 0.02 0.02 0.04 0.04 0.07 0.09 0.04 0.04 0.12 0.12 0.11 0.13 0.14 0.15 0.20 0.21 0.19 0.19 0.15 0.12 0.21 0.19 0.15 0.04 0.04 0.04
0.00 0.00 0.02 0.08 0.10 0.03 0.02 0.01 0.01 0.02 0.03 0.04 0.06 0.05 0.10 0.12 0.12 0.10 0.13 0.13 0.13 0.15 0.14 0.13 0.13 0.14 0.18 0.12 0.13 0.04 0.05 0.06

GFSFLT1_prec_precacc24_078.txt.gz
Total_Precipitation_Accumulation
0.00 0.00 0.00 0.00 0.00 0.01 0.03 0.11 0.33 0.50 0.39 0.34 0.31 0.35 0.23 0.25 0.22 0.13 0.04 0.01 0.00 0.01 0.04 0.06 0.08 0.06 0.00 0.00 0.00 0.00 0.00 0.00
0.00 0.00 0.00 0.00 0.00 0.01 0.02 0.03 0.08 0.14 0.20 0.23 0.19 0.22 0.11 0.13 0.11 0.10 0.04 0.00 0.00 0.00 0.03 0.07 0.11 0.05 0.02 0.00 0.01 0.03 0.01 0.00
0.00 0.00 0.00 0.00 0.00 0.00 0.01 0.01 0.02 0.01 0.03 0.05 0.07 0.11 0.10 0.07 0.08 0.08 0.07 0.01 0.02 0.07 0.07 0.03 0.04 0.05 0.05 0.03 0.04 0.03 0.05 0.05
0.00 0.00 0.00 0.00 0.00 0.00 0.00 0.01 0.01 0.01 0.01 0.03 0.05 0.13 0.22 0.16 0.13 0.12 0.12 0.03 0.02 0.03 0.11 0.09 0.08 0.05 0.05 0.06 0.06 0.05 0.10 0.06
0.00 0.00 0.00 0.00 0.00 0.00 0.00 0.00 0.01 0.01 0.01 0.02 0.02 0.02 0.08 0.08 0.06 0.07 0.15 0.10 0.02 0.01 0.02 0.04 0.05 0.05 0.08 0.07 0.06 0.04 0.20 0.25
0.00 0.00 0.00 0.00 0.00 0.00 0.00 0.00 0.01 0.00 0.01 0.01 0.01 0.01 0.00 0.03 0.07 0.11 0.16 0.21 0.06 0.03 0.02 0.08 0.04 0.03 0.12 0.18 0.11 0.12 0.19 0.24
0.00 0.00 0.00 0.00 0.00 0.00 0.00 0.00 0.00 0.00 0.01 0.01 0.02 0.04 0.02 0.02 0.02 0.03 0.06 0.15 0.10 0.05 0.04 0.04 0.08 0.08 0.14 0.21 0.28 0.27 0.35 0.35
0.00 0.00 0.00 0.00 0.00 0.00 0.00 0.00 0.00 0.00 0.00 0.01 0.01 0.02 0.04 0.09 0.03 0.00 0.03 0.05 0.03 0.03 0.10 0.09 0.08 0.20 0.23 0.30 0.33 0.36 0.42 0.49
0.00 0.00 0.00 0.00 0.00 0.00 0.00 0.00 0.00 0.00 0.00 0.00 0.00 0.00 0.01 0.04 0.13 0.07 0.12 0.08 0.04 0.06 0.15 0.33 0.28 0.25 0.26 0.32 0.46 0.63 0.70 0.62
0.00 0.00 0.00 0.00 0.00 0.00 0.00 0.01 0.00 0.00 0.00 0.00 0.00 0.00 0.01 0.02 0.08 0.14 0.18 0.16 0.16 0.17 0.24 0.36 0.39 0.36 0.49 0.57 0.52 0.36 0.27 0.20
0.00 0.00 0.00 0.00 0.00 0.00 0.00 0.07 0.20 0.17 0.03 0.00 0.00 0.00 0.00 0.07 0.06 0.17 0.30 0.33 0.21 0.33 0.35 0.40 0.38 0.29 0.30 0.35 0.31 0.20 0.19 0.19
0.00 0.00 0.00 0.00 0.00 0.00 0.00 0.00 0.16 0.33 0.40 0.28 0.12 0.14 0.11 0.30 0.35 0.48 0.39 0.38 0.49 0.60 0.42 0.32 0.27 0.40 0.42 0.25 0.17 0.15 0.12 0.15
0.00 0.00 0.00 0.00 0.00 0.00 0.00 0.00 0.08 0.30 0.93 0.98 0.53 0.62 0.52 0.52 0.57 0.58 0.66 0.70 0.66 0.53 0.33 0.22 0.19 0.16 0.25 0.35 0.34 0.32 0.32 0.33
0.00 0.00 0.00 0.00 0.01 0.00 0.00 0.08 0.24 0.73 0.91 0.69 0.62 0.78 0.91 0.75 0.62 0.41 0.23 0.24 0.30 0.25 0.26 0.18 0.15 0.13 0.16 0.20 0.22 0.26 0.29 0.32
0.00 0.00 0.00 0.00 0.00 0.01 0.05 0.21 0.30 0.57 0.33 0.42 0.33 0.32 0.48 0.19 0.23 0.19 0.15 0.10 0.11 0.15 0.11 0.11 0.10 0.10 0.11 0.11 0.14 0.17 0.19 0.20
0.00 0.00 0.00 0.00 0.00 0.00 0.02 0.03 0.09 0.21 0.19 0.23 0.16 0.16 0.22 0.14 0.17 0.18 0.11 0.10 0.11 0.15 0.11 0.08 0.07 0.08 0.10 0.11 0.12 0.12 0.13 0.16
0.00 0.00 0.00 0.00 0.00 0.00 0.00 0.03 0.11 0.07 0.07 0.08 0.06 0.09 0.15 0.13 0.15 0.15 0.13 0.14 0.19 0.19 0.19 0.17 0.13 0.14 0.25 0.18 0.10 0.05 0.04 0.05
0.00 0.00 0.00 0.00 0.01 0.00 0.01 0.01 0.04 0.04 0.06 0.06 0.03 0.04 0.12 0.12 0.11 0.13 0.14 0.15 0.20 0.21 0.19 0.19 0.15 0.12 0.20 0.18 0.14 0.04 0.04 0.04
0.00 0.00 0.01 0.03 0.06 0.01 0.00 0.01 0.01 0.01 0.02 0.04 0.06 0.05 0.10 0.12 0.12 0.10 0.13 0.13 0.13 0.15 0.14 0.13 0.13 0.14 0.17 0.13 0.14 0.05 0.05 0.07

GFSFLT1_prec_precacc24_084.txt.gz
Total_Precipitation_Accumulation
0.00 0.00 0.00 0.00 0.00 0.01 0.03 0.11 0.33 0.51 0.39 0.34 0.31 0.35 0.23 0.28 0.24 0.17 0.06 0.02 0.01 0.02 0.03 0.11 0.10 0.05 0.01 0.00 0.00 0.00 0.00 0.00
0.00 0.00 0.00 0.00 0.00 0.01 0.02 0.03 0.09 0.15 0.20 0.23 0.20 0.22 0.11 0.15 0.12 0.16 0.07 0.01 0.02 0.01 0.01 0.08 0.05 0.04 0.02 0.00 0.01 0.03 0.01 0.00
0.00 0.00 0.00 0.00 0.00 0.00 0.01 0.01 0.03 0.02 0.04 0.05 0.07 0.11 0.10 0.07 0.09 0.11 0.08 0.01 0.03 0.05 0.02 0.01 0.03 0.05 0.05 0.03 0.04 0.03 0.05 0.05
0.00 0.00 0.00 0.00 0.00 0.00 0.00 0.01 0.01 0.01 0.02 0.04 0.05 0.13 0.23 0.16 0.13 0.12 0.13 0.03 0.02 0.04 0.07 0.08 0.09 0.07 0.06 0.06 0.06 0.05 0.10 0.06
0.00 0.00 0.00 0.00 0.00 0.00 0.00 0.00 0.01 0.01 0.02 0.02 0.02 0.03 0.09 0.08 0.06 0.07 0.15 0.09 0.02 0.01 0.02 0.03 0.06 0.08 0.08 0.07 0.06 0.04 0.20 0.25
0.00 0.00 0.00 0.00 0.00 0.00 0.00 0.00 0.01 0.01 0.01 0.02 0.01 0.01 0.01 0.03 0.07 0.11 0.16 0.20 0.04 0.02 0.02 0.03 0.04 0.04 0.09 0.14 0.09 0.10 0.18 0.23
0.00 0.00 0.00 0.00 0.00 0.00 0.00 0.00 0.00 0.01 0.01 0.02 0.01 0.01 0.01 0.01 0.02 0.03 0.05 0.14 0.10 0.02 0.01 0.02 0.05 0.06 0.09 0.12 0.22 0.25 0.35 0.34
0.00 0.00 0.00 0.00 0.00 0.00 0.00 0.00 0.00 0.00 0.00 0.01 0.01 0.01 0.01 0.00 0.00 0.00 0.00 0.01 0.03 0.01 0.00 0.00 0.01 0.05 0.09 0.19 0.28 0.33 0.40 0.38
0.00 0.00 0.00 0.00 0.00 0.00 0.00 0.00 0.00 0.00 0.00 0.00 0.01 0.00 0.01 0.00 0.00 0.00 0.00 0.00 0.00 0.00 0.00 0.00 0.01 0.05 0.09 0.20 0.38 0.56 0.66 0.56
0.00 0.00 0.00 0.00 0.00 0.00 0.00 0.01 0.00 0.00 0.00 0.00 0.00 0.00 0.00 0.00 0.00 0.00 0.03 0.04 0.02 0.00 0.00 0.00 0.02 0.04 0.18 0.41 0.45 0.33 0.25 0.17
0.00 0.00 0.00 0.00 0.00 0.00 0.00 0.05 0.15 0.10 0.01 0.00 0.00 0.00 0.00 0.00 0.00 0.00 0.02 0.09 0.12 0.09 0.05 0.05 0.06 0.09 0.19 0.29 0.27 0.18 0.12 0.09
0.00 0.00 0.00 0.00 0.00 0.00 0.00 0.00 0.07 0.21 0.25 0.09 0.00 0.00 0.00 0.00 0.02 0.03 0.03 0.09 0.20 0.18 0.12 0.17 0.21 0.32 0.36 0.23 0.15 0.11 0.10 0.11
0.00 0.00 0.00 0.00 0.00 0.00 0.00 0.00 0.00 0.09 0.35 0.30 0.15 0.05 0.08 0.09 0.06 0.05 0.09 0.29 0.53 0.43 0.22 0.18 0.16 0.15 0.24 0.34 0.33 0.30 0.28 0.27
0.00 0.00 0.00 0.02 0.02 0.01 0.01 0.00 0.01 0.14 0.20 0.20 0.20 0.29 0.47 0.44 0.25 0.13 0.10 0.14 0.22 0.20 0.22 0.16 0.15 0.13 0.16 0.20 0.19 0.21 0.24 0.29
0.00 0.00 0.00 0.01 0.04 0.10 0.10 0.04 0.02 0.04 0.09 0.09 0.12 0.13 0.13 0.06 0.02 0.06 0.08 0.04 0.06 0.10 0.08 0.08 0.08 0.08 0.09 0.09 0.12 0.16 0.18 0.20
0.00 0.00 0.00 0.00 0.00 0.04 0.11 0.11 0.07 0.06 0.06 0.05 0.04 0.07 0.09 0.06 0.04 0.05 0.04 0.04 0.08 0.12 0.08 0.06 0.07 0.07 0.09 0.10 0.11 0.11 0.13 0.16
0.00 0.00 0.00 0.00 0.00 0.00 0.01 0.05 0.07 0.08 0.06 0.10 0.06 0.06 0.06 0.04 0.06 0.09 0.08 0.10 0.16 0.17 0.17 0.15 0.11 0.12 0.22 0.17 0.10 0.05 0.04 0.05
0.00 0.00 0.00 0.00 0.00 0.00 0.00 0.00 0.02 0.02 0.02 0.11 0.10 0.06 0.09 0.11 0.13 0.13 0.13 0.15 0.21 0.21 0.19 0.18 0.14 0.12 0.20 0.18 0.14 0.04 0.04 0.04
0.00 0.00 0.00 0.00 0.00 0.00 0.00 0.00 0.00 0.00 0.02 0.05 0.07 0.10 0.13 0.16 0.14 0.12 0.14 0.16 0.17 0.17 0.16 0.14 0.13 0.14 0.17 0.13 0.14 0.05 0.05 0.07

GFSFLT1_prec_precacc24_087.txt.gz
Total_Precipitation_Accumulation
0.00 0.00 0.00 0.00 0.00 0.01 0.03 0.09 0.30 0.48 0.38 0.32 0.30 0.34 0.23 0.30 0.28 0.29 0.15 0.17 0.12 0.04 0.05 0.10 0.10 0.05 0.01 0.00 0.00 0.00 0.00 0.00
0.00 0.00 0.00 0.00 0.00 0.01 0.02 0.03 0.09 0.15 0.20 0.23 0.19 0.22 0.11 0.16 0.14 0.25 0.23 0.11 0.08 0.04 0.04 0.09 0.05 0.04 0.02 0.00 0.01 0.03 0.01 0.00
0.00 0.00 0.00 0.00 0.00 0.00 0.01 0.01 0.03 0.02 0.04 0.05 0.07 0.11 0.11 0.08 0.10 0.15 0.26 0.16 0.09 0.09 0.06 0.02 0.03 0.04 0.04 0.03 0.04 0.03 0.05 0.05
0.00 0.00 0.00 0.00 0.00 0.00 0.00 0.01 0.01 0.01 0.02 0.04 0.05 0.13 0.23 0.17 0.15 0.16 0.26 0.11 0.08 0.10 0.16 0.10 0.09 0.07 0.05 0.05 0.06 0.04 0.09 0.06
0.00 0.00 0.00 0.00 0.00 0.00 0.00 0.00 0.01 0.01 0.02 0.02 0.02 0.03 0.09 0.09 0.06 0.08 0.19 0.13 0.05 0.04 0.08 0.07 0.07 0.08 0.08 0.07 0.04 0.02 0.17 0.23
0.00 0.00 0.00 0.00 0.00 0.00 0.00 0.00 0.01 0.01 0.01 0.02 0.01 0.01 0.01 0.03 0.07 0.11 0.17 0.23 0.05 0.04 0.04 0.05 0.04 0.05 0.10 0.14 0.08 0.07 0.14 0.21
0.00 0.00 0.00 0.00 0.00 0.00 0.00 0.00 0.00 0.01 0.01 0.02 0.01 0.01 0.01 0.01 0.03 0.03 0.05 0.14 0.11 0.03 0.02 0.03 0.05 0.07 0.10 0.12 0.15 0.19 0.31 0.30
0.00 0.00 0.00 0.00 0.00 0.00 0.00 0.00 0.00 0.00 0.00 0.01 0.01 0.01 0.01 0.00 0.00 0.00 0.00 0.01 0.03 0.01 0.01 0.01 0.01 0.02 0.04 0.10 0.16 0.25 0.29 0.34
0.00 0.00 0.00 0.00 0.00 0.00 0.00 0.00 0.00 0.00 0.00 0.00 0.01 0.00 0.01 0.00 0.00 0.00 0.00 0.00 0.00 0.00 0.00 0.00 0.00 0.01 0.03 0.05 0.11 0.16 0.48 0.51
0.00 0.00 0.00 0.00 0.00 0.00 0.00 0.00 0.00 0.00 0.00 0.00 0.00 0.00 0.00 0.00 0.00 0.00 0.00 0.00 0.00 0.00 0.00 0.00 0.00 0.00 0.02 0.04 0.12 0.18 0.22 0.17
0.00 0.00 0.00 0.00 0.00 0.00 0.00 0.01 0.08 0.04 0.01 0.00 0.00 0.00 0.00 0.00 0.00 0.00 0.00 0.00 0.00 0.01 0.02 0.02 0.01 0.01 0.01 0.05 0.12 0.14 0.12 0.09
0.00 0.00 0.00 0.00 0.00 0.00 0.00 0.00 0.02 0.08 0.13 0.06 0.00 0.00 0.00 0.00 0.00 0.00 0.00 0.00 0.01 0.03 0.06 0.09 0.09 0.11 0.20 0.16 0.11 0.10 0.10 0.10
0.00 0.00 0.00 0.00 0.00 0.00 0.01 0.01 0.00 0.02 0.13 0.14 0.08 0.01 0.00 0.01 0.01 0.00 0.00 0.00 0.01 0.04 0.09 0.11 0.11 0.10 0.20 0.31 0.31 0.29 0.28 0.26
0.00 0.00 0.00 0.03 0.03 0.03 0.04 0.02 0.01 0.02 0.05 0.10 0.10 0.05 0.05 0.21 0.16 0.07 0.02 0.01 0.03 0.09 0.12 0.09 0.05 0.08 0.12 0.18 0.19 0.21 0.24 0.28
0.02 0.02 0.03 0.06 0.09 0.21 0.23 0.15 0.07 0.06 0.04 0.04 0.07 0.08 0.09 0.06 0.01 0.00 0.00 0.00 0.01 0.06 0.06 0.05 0.04 0.04 0.07 0.09 0.12 0.16 0.18 0.20
0.00 0.01 0.01 0.01 0.01 0.05 0.13 0.13 0.10 0.07 0.12 0.12 0.13 0.09 0.12 0.09 0.06 0.03 0.00 0.00 0.02 0.05 0.04 0.03 0.03 0.03 0.07 0.10 0.11 0.11 0.12 0.16
0.00 0.00 0.00 0.00 0.00 0.00 0.01 0.05 0.07 0.08 0.07 0.12 0.07 0.07 0.08 0.06 0.11 0.17 0.10 0.08 0.11 0.14 0.14 0.12 0.07 0.09 0.19 0.16 0.09 0.05 0.04 0.05
0.01 0.00 0.00 0.00 0.00 0.00 0.00 0.00 0.02 0.02 0.02 0.11 0.09 0.05 0.07 0.09 0.15 0.15 0.13 0.16 0.21 0.19 0.18 0.17 0.13 0.12 0.21 0.19 0.15 0.04 0.04 0.04
0.03 0.00 0.00 0.00 0.00 0.00 0.00 0.00 0.00 0.00 0.01 0.02 0.04 0.07 0.09 0.12 0.12 0.11 0.13 0.17 0.17 0.18 0.16 0.15 0.15 0.15 0.21 0.22 0.24 0.08 0.05 0.07

GFSFLT1_prec_precacc24_090.txt.gz
Total_Precipitation_Accumulation
0.00 0.00 0.00 0.00 0.00 0.01 0.02 0.05 0.23 0.34 0.32 0.21 0.24 0.32 0.23 0.29 0.27 0.33 0.32 0.56 0.33 0.11 0.07 0.13 0.11 0.05 0.01 0.00 0.00 0.00 0.00 0.00
0.00 0.00 0.00 0.00 0.00 0.01 0.01 0.03 0.07 0.12 0.18 0.16 0.16 0.18 0.11 0.15 0.14 0.34 0.34 0.29 0.34 0.12 0.06 0.10 0.05 0.03 0.01 0.00 0.01 0.03 0.01 0.00
0.00 0.00 0.00 0.00 0.00 0.00 0.01 0.01 0.02 0.02 0.04 0.04 0.06 0.07 0.10 0.07 0.10 0.18 0.51 0.26 0.27 0.18 0.10 0.04 0.02 0.02 0.03 0.03 0.04 0.03 0.05 0.05
0.00 0.00 0.00 0.00 0.00 0.00 0.00 0.01 0.01 0.01 0.02 0.04 0.05 0.12 0.22 0.17 0.15 0.17 0.38 0.27 0.18 0.23 0.20 0.12 0.05 0.06 0.05 0.05 0.06 0.04 0.09 0.05
0.00 0.00 0.00 0.00 0.00 0.00 0.00 0.00 0.01 0.01 0.02 0.02 0.02 0.02 0.08 0.08 0.06 0.09 0.22 0.22 0.17 0.18 0.23 0.16 0.08 0.08 0.08 0.07 0.04 0.02 0.17 0.23
0.00 0.00 0.00 0.00 0.00 0.00 0.00 0.00 0.01 0.01 0.01 0.02 0.02 0.01 0.01 0.03 0.07 0.11 0.19 0.30 0.12 0.17 0.13 0.16 0.08 0.06 0.10 0.14 0.08 0.07 0.13 0.19
0.00 0.00 0.00 0.00 0.00 0.00 0.00 0.00 0.00 0.01 0.01 0.02 0.01 0.01 0.01 0.01 0.03 0.03 0.06 0.16 0.16 0.11 0.14 0.09 0.09 0.08 0.11 0.12 0.15 0.17 0.22 0.23
0.00 0.00 0.00 0.00 0.00 0.00 0.00 0.00 0.00 0.00 0.01 0.01 0.01 0.01 0.01 0.00 0.00 0.00 0.00 0.01 0.04 0.02 0.05 0.05 0.05 0.03 0.04 0.10 0.12 0.15 0.15 0.13
0.00 0.00 0.00 0.00 0.00 0.00 0.00 0.00 0.00 0.00 0.00 0.01 0.01 0.00 0.01 0.00 0.00 0.00 0.00 0.00 0.00 0.00 0.00 0.01 0.01 0.02 0.03 0.04 0.05 0.06 0.07 0.08
0.00 0.00 0.00 0.00 0.00 0.00 0.00 0.00 0.00 0.00 0.00 0.00 0.00 0.00 0.00 0.00 0.00 0.00 0.00 0.00 0.00 0.00 0.00 0.00 0.00 0.01 0.02 0.03 0.03 0.03 0.05 0.07
0.00 0.00 0.00 0.00 0.00 0.00 0.00 0.00 0.01 0.01 0.00 0.00 0.00 0.00 0.00 0.00 0.00 0.00 0.00 0.00 0.00 0.00 0.00 0.00 0.00 0.00 0.01 0.02 0.02 0.02 0.05 0.07
0.00 0.00 0.00 0.00 0.00 0.00 0.00 0.00 0.00 0.01 0.04 0.03 0.00 0.00 0.00 0.00 0.00 0.00 0.00 0.00 0.00 0.00 0.00 0.00 0.00 0.00 0.06 0.06 0.04 0.03 0.03 0.06
0.00 0.00 0.00 0.00 0.00 0.00 0.02 0.04 0.02 0.00 0.03 0.07 0.05 0.00 0.00 0.00 0.00 0.00 0.00 0.00 0.00 0.00 0.00 0.01 0.03 0.04 0.07 0.14 0.21 0.22 0.24 0.24
0.00 0.00 0.00 0.03 0.03 0.04 0.07 0.05 0.02 0.01 0.02 0.03 0.05 0.03 0.02 0.00 0.00 0.00 0.00 0.00 0.00 0.00 0.00 0.00 0.01 0.04 0.10 0.13 0.14 0.17 0.22 0.27
0.05 0.04 0.05 0.08 0.13 0.27 0.32 0.25 0.16 0.12 0.13 0.10 0.09 0.08 0.07 0.04 0.01 0.00 0.00 0.00 0.00 0.00 0.00 0.00 0.01 0.02 0.05 0.06 0.09 0.14 0.18 0.19
0.03 0.05 0.07 0.09 0.10 0.16 0.22 0.20 0.14 0.14 0.19 0.17 0.16 0.07 0.09 0.06 0.05 0.03 0.00 0.00 0.00 0.00 0.00 0.00 0.01 0.01 0.02 0.05 0.07 0.09 0.12 0.15
0.01 0.00 0.00 0.01 0.02 0.03 0.04 0.06 0.08 0.09 0.10 0.16 0.09 0.06 0.05 0.04 0.07 0.12 0.06 0.05 0.03 0.01 0.01 0.02 0.02 0.03 0.09 0.08 0.05 0.03 0.03 0.03
0.04 0.02 0.00 0.01 0.02 0.02 0.01 0.01 0.02 0.02 0.02 0.11 0.10 0.05 0.05 0.06 0.12 0.09 0.07 0.09 0.11 0.09 0.07 0.07 0.07 0.07 0.16 0.19 0.15 0.04 0.02 0.02
0.20 0.07 0.03 0.01 0.01 0.00 0.00 0.00 0.00 0.00 0.01 0.02 0.04 0.07 0.06 0.08 0.06 0.06 0.07 0.10 0.09 0.10 0.09 0.11 0.10 0.09 0.20 0.27 0.29 0.12 0.05 0.07

GFSFLT1_prec_precacc24_093.txt.gz
Total_Precipitation_Accumulation
0.00 0.00 0.00 0.00 0.00 0.01 0.02 0.02 0.10 0.22 0.24 0.16 0.22 0.27 0.21 0.27 0.21 0.29 0.48 0.96 0.58 0.31 0.25 0.18 0.21 0.13 0.03 0.00 0.00 0.00 0.00 0.00
0.00 0.00 0.00 0.00 0.00 0.00 0.01 0.03 0.05 0.09 0.16 0.14 0.14 0.16 0.10 0.14 0.13 0.30 0.38 0.65 0.67 0.25 0.12 0.14 0.09 0.05 0.01 0.00 0.00 0.02 0.01 0.00
0.00 0.00 0.00 0.00 0.00 0.00 0.01 0.01 0.02 0.02 0.03 0.03 0.05 0.06 0.06 0.05 0.08 0.16 0.61 0.47 0.45 0.29 0.12 0.05 0.02 0.02 0.01 0.00 0.00 0.01 0.02 0.04
0.00 0.00 0.00 0.00 0.00 0.00 0.00 0.01 0.01 0.01 0.02 0.02 0.03 0.09 0.13 0.13 0.12 0.13 0.40 0.36 0.30 0.36 0.21 0.11 0.03 0.02 0.01 0.00 0.00 0.01 0.07 0.04
0.00 0.00 0.00 0.00 0.00 0.00 0.00 0.00 0.01 0.01 0.02 0.02 0.01 0.02 0.05 0.05 0.05 0.06 0.20 0.25 0.26 0.32 0.30 0.18 0.06 0.03 0.03 0.02 0.00 0.01 0.17 0.21
0.00 0.00 0.00 0.00 0.00 0.00 0.00 0.00 0.01 0.01 0.01 0.02 0.02 0.01 0.01 0.02 0.06 0.10 0.18 0.29 0.24 0.32 0.34 0.26 0.14 0.07 0.10 0.13 0.07 0.07 0.13 0.19
0.00 0.00 0.00 0.00 0.00 0.00 0.00 0.00 0.00 0.01 0.01 0.02 0.01 0.01 0.01 0.01 0.03 0.03 0.06 0.18 0.17 0.21 0.38 0.30 0.20 0.15 0.15 0.14 0.15 0.17 0.21 0.19
0.00 0.00 0.00 0.00 0.00 0.00 0.00 0.00 0.00 0.00 0.01 0.01 0.01 0.01 0.01 0.00 0.00 0.00 0.00 0.03 0.05 0.03 0.10 0.18 0.16 0.10 0.07 0.13 0.13 0.15 0.15 0.11
0.00 0.00 0.00 0.00 0.00 0.00 0.00 0.00 0.00 0.00 0.01 0.01 0.01 0.00 0.01 0.00 0.00 0.00 0.00 0.00 0.01 0.02 0.01 0.05 0.07 0.04 0.04 0.05 0.05 0.06 0.07 0.07
0.00 0.00 0.00 0.00 0.00 0.00 0.00 0.00 0.00 0.00 0.00 0.01 0.00 0.01 0.00 0.00 0.00 0.00 0.00 0.00 0.00 0.02 0.02 0.02 0.05 0.03 0.02 0.03 0.03 0.03 0.04 0.04
0.00 0.00 0.00 0.00 0.00 0.00 0.00 0.00 0.00 0.00 0.00 0.00 0.00 0.00 0.00 0.00 0.00 0.00 0.00 0.00 0.00 0.00 0.02 0.03 0.01 0.02 0.01 0.03 0.03 0.02 0.05 0.06
0.00 0.00 0.00 0.00 0.00 0.00 0.01 0.00 0.01 0.00 0.00 0.00 0.00 0.00 0.01 0.00 0.00 0.00 0.00 0.00 0.00 0.00 0.00 0.00 0.00 0.00 0.00 0.01 0.01 0.01 0.01 0.02
0.01 0.00 0.00 0.00 0.00 0.01 0.03 0.04 0.03 0.01 0.01 0.00 0.00 0.00 0.00 0.00 0.00 0.00 0.00 0.00 0.00 0.00 0.00 0.00 0.00 0.00 0.00 0.00 0.00 0.00 0.01 0.04
0.10 0.02 0.03 0.05 0.06 0.06 0.08 0.06 0.03 0.03 0.03 0.02 0.01 0.01 0.00 0.00 0.00 0.00 0.00 0.00 0.00 0.00 0.00 0.00 0.00 0.00 0.00 0.00 0.01 0.04 0.09 0.15
0.16 0.09 0.08 0.11 0.17 0.31 0.36 0.29 0.22 0.17 0.21 0.20 0.13 0.08 0.06 0.03 0.00 0.00 0.00 0.00 0.00 0.00 0.00 0.00 0.00 0.00 0.00 0.00 0.00 0.03 0.10 0.14
0.26 0.16 0.14 0.15 0.16 0.21 0.27 0.29 0.25 0.21 0.28 0.28 0.22 0.09 0.10 0.06 0.04 0.02 0.00 0.00 0.00 0.00 0.00 0.00 0.00 0.00 0.00 0.00 0.02 0.06 0.09 0.11
0.23 0.09 0.08 0.10 0.09 0.09 0.09 0.12 0.14 0.15 0.15 0.22 0.15 0.10 0.06 0.05 0.08 0.12 0.06 0.04 0.02 0.01 0.01 0.01 0.00 0.00 0.01 0.01 0.01 0.01 0.02 0.02
0.10 0.02 0.01 0.01 0.03 0.03 0.05 0.07 0.15 0.15 0.16 0.18 0.14 0.08 0.07 0.07 0.13 0.11 0.09 0.11 0.11 0.08 0.07 0.06 0.05 0.08 0.13 0.11 0.10 0.03 0.02 0.01
0.51 0.26 0.09 0.01 0.02 0.03 0.02 0.04 0.07 0.18 0.14 0.06 0.09 0.11 0.08 0.08 0.07 0.06 0.08 0.11 0.11 0.11 0.09 0.10 0.10 0.13 0.19 0.24 0.25 0.11 0.04 0.06

GFSFLT1_prec_precacc24_096.txt.gz
Total_Precipitation_Accumulation
0.00 0.00 0.00 0.00 0.00 0.00 0.01 0.02 0.02 0.03 0.11 0.08 0.15 0.17 0.10 0.15 0.12 0.28 0.50 0.99 0.68 0.54 0.54 0.33 0.33 0.23 0.17 0.09 0.03 0.03 0.02 0.00
0.00 0.00 0.00 0.00 0.00 0.00 0.01 0.02 0.02 0.03 0.08 0.10 0.08 0.11 0.06 0.08 0.08 0.29 0.40 0.70 0.82 0.51 0.42 0.34 0.23 0.16 0.11 0.05 0.01 0.01 0.01 0.00
0.00 0.00 0.00 0.00 0.00 0.00 0.01 0.01 0.02 0.02 0.02 0.02 0.02 0.02 0.03 0.04 0.04 0.15 0.61 0.62 0.66 0.53 0.35 0.22 0.16 0.13 0.10 0.04 0.01 0.01 0.00 0.01
0.00 0.00 0.00 0.00 0.00 0.00 0.00 0.01 0.01 0.01 0.01 0.02 0.01 0.05 0.11 0.11 0.08 0.10 0.34 0.41 0.50 0.45 0.40 0.22 0.13 0.11 0.05 0.01 0.00 0.01 0.06 0.01
0.00 0.00 0.00 0.00 0.00 0.00 0.00 0.00 0.01 0.01 0.02 0.02 0.01 0.02 0.05 0.05 0.05 0.05 0.11 0.21 0.34 0.42 0.38 0.29 0.13 0.11 0.04 0.01 0.00 0.00 0.14 0.14
0.00 0.00 0.00 0.00 0.00 0.00 0.00 0.00 0.01 0.01 0.01 0.02 0.02 0.01 0.01 0.02 0.05 0.08 0.08 0.14 0.23 0.39 0.43 0.31 0.16 0.08 0.05 0.06 0.04 0.06 0.12 0.12
0.00 0.00 0.00 0.00 0.00 0.00 0.00 0.00 0.00 0.01 0.01 0.02 0.01 0.01 0.01 0.01 0.02 0.03 0.04 0.10 0.15 0.27 0.48 0.36 0.21 0.14 0.11 0.09 0.10 0.11 0.17 0.16
0.00 0.00 0.00 0.00 0.00 0.00 0.00 0.00 0.00 0.00 0.01 0.01 0.01 0.01 0.00 0.00 0.01 0.01 0.00 0.03 0.05 0.08 0.18 0.29 0.23 0.15 0.11 0.13 0.11 0.12 0.13 0.09
0.00 0.00 0.00 0.00 0.00 0.00 0.00 0.00 0.00 0.00 0.01 0.01 0.01 0.00 0.01 0.00 0.00 0.01 0.01 0.01 0.01 0.02 0.03 0.10 0.14 0.15 0.07 0.07 0.07 0.07 0.07 0.07
0.00 0.00 0.00 0.00 0.00 0.00 0.00 0.00 0.00 0.00 0.00 0.01 0.01 0.01 0.01 0.00 0.00 0.01 0.01 0.01 0.00 0.02 0.02 0.04 0.11 0.17 0.12 0.04 0.04 0.03 0.05 0.04
0.00 0.00 0.00 0.00 0.00 0.00 0.00 0.01 0.00 0.00 0.00 0.00 0.00 0.00 0.00 0.00 0.00 0.00 0.00 0.00 0.00 0.00 0.03 0.05 0.04 0.08 0.13 0.06 0.03 0.03 0.05 0.05
0.00 0.00 0.00 0.00 0.00 0.00 0.01 0.01 0.01 0.01 0.00 0.00 0.00 0.00 0.01 0.00 0.00 0.00 0.00 0.00 0.00 0.00 0.00 0.02 0.04 0.01 0.03 0.02 0.01 0.02 0.02 0.02
0.04 0.02 0.01 0.01 0.00 0.01 0.03 0.05 0.04 0.02 0.01 0.01 0.00 0.00 0.00 0.01 0.00 0.00 0.00 0.00 0.00 0.00 0.00 0.00 0.00 0.00 0.00 0.00 0.00 0.00 0.00 0.00
0.14 0.06 0.06 0.08 0.07 0.07 0.09 0.07 0.04 0.05 0.06 0.05 0.01 0.01 0.00 0.00 0.00 0.00 0.00 0.00 0.00 0.00 0.01 0.00 0.00 0.00 0.00 0.00 0.00 0.00 0.00 0.00
0.25 0.20 0.14 0.14 0.20 0.33 0.38 0.32 0.25 0.23 0.25 0.26 0.16 0.09 0.06 0.03 0.01 0.01 0.00 0.00 0.00 0.00 0.00 0.00 0.00 0.00 0.00 0.00 0.00 0.00 0.00 0.00
0.45 0.28 0.25 0.21 0.20 0.25 0.32 0.35 0.38 0.34 0.37 0.39 0.29 0.10 0.10 0.07 0.06 0.03 0.01 0.01 0.00 0.00 0.00 0.00 0.00 0.00 0.00 0.00 0.00 0.00 0.00 0.00
0.73 0.44 0.23 0.22 0.20 0.15 0.17 0.24 0.27 0.27 0.24 0.31 0.24 0.14 0.08 0.05 0.08 0.12 0.07 0.05 0.03 0.01 0.01 0.02 0.01 0.01 0.02 0.00 0.00 0.00 0.00 0.00
0.72 0.50 0.21 0.11 0.16 0.14 0.18 0.20 0.29 0.27 0.24 0.26 0.21 0.15 0.16 0.14 0.16 0.12 0.10 0.12 0.12 0.10 0.09 0.08 0.09 0.13 0.18 0.11 0.10 0.02 0.01 0.01
1.01 0.89 0.36 0.14 0.12 0.08 0.06 0.10 0.15 0.30 0.27 0.31 0.28 0.23 0.18 0.18 0.12 0.09 0.09 0.12 0.12 0.12 0.10 0.12 0.12 0.17 0.23 0.24 0.23 0.10 0.03 0.05

GFSFLT1_prec_precacc24_099.txt.gz
Total_Precipitation_Accumulation
0.00 0.00 0.00 0.00 0.00 0.00 0.00 0.00 0.01 0.01 0.01 0.03 0.02 0.04 0.04 0.08 0.11 0.28 0.51 1.01 0.69 0.57 0.62 0.47 0.37 0.28 0.19 0.10 0.06 0.12 0.13 0.05
0.00 0.00 0.00 0.00 0.00 0.00 0.00 0.01 0.01 0.02 0.02 0.03 0.03 0.05 0.04 0.06 0.07 0.29 0.42 0.74 0.86 0.59 0.60 0.56 0.40 0.25 0.17 0.09 0.04 0.06 0.12 0.07
0.00 0.00 0.00 0.00 0.00 0.00 0.00 0.00 0.01 0.01 0.01 0.01 0.00 0.01 0.02 0.03 0.05 0.16 0.64 0.66 0.68 0.60 0.62 0.52 0.36 0.27 0.27 0.18 0.05 0.05 0.07 0.06
0.00 0.00 0.00 0.00 0.00 0.00 0.00 0.00 0.00 0.01 0.01 0.01 0.00 0.01 0.02 0.05 0.06 0.10 0.35 0.42 0.51 0.49 0.57 0.55 0.29 0.25 0.18 0.15 0.06 0.03 0.03 0.04
0.00 0.00 0.00 0.00 0.00 0.00 0.00 0.00 0.01 0.01 0.02 0.01 0.01 0.01 0.02 0.02 0.02 0.04 0.11 0.20 0.35 0.43 0.42 0.48 0.27 0.26 0.20 0.11 0.05 0.03 0.06 0.03
0.00 0.00 0.00 0.00 0.00 0.00 0.00 0.00 0.00 0.01 0.01 0.01 0.01 0.01 0.01 0.01 0.02 0.03 0.06 0.11 0.23 0.39 0.46 0.49 0.35 0.26 0.20 0.10 0.03 0.07 0.07 0.02
0.00 0.00 0.00 0.00 0.00 0.00 0.00 0.00 0.00 0.01 0.01 0.01 0.01 0.01 0.01 0.01 0.01 0.02 0.02 0.05 0.11 0.27 0.52 0.51 0.42 0.32 0.24 0.11 0.07 0.08 0.12 0.09
0.00 0.00 0.00 0.00 0.00 0.00 0.00 0.00 0.00 0.00 0.01 0.01 0.01 0.01 0.00 0.00 0.01 0.01 0.01 0.02 0.03 0.07 0.18 0.37 0.36 0.31 0.21 0.14 0.11 0.12 0.10 0.07
0.00 0.00 0.00 0.00 0.00 0.00 0.00 0.00 0.00 0.00 0.01 0.01 0.01 0.00 0.00 0.00 0.00 0.01 0.01 0.01 0.01 0.02 0.04 0.13 0.26 0.29 0.17 0.15 0.13 0.10 0.10 0.06
0.00 0.00 0.00 0.00 0.00 0.00 0.00 0.00 0.00 0.00 0.00 0.01 0.01 0.01 0.01 0.00 0.00 0.01 0.01 0.01 0.00 0.02 0.02 0.06 0.17 0.22 0.21 0.13 0.10 0.09 0.09 0.08
0.00 0.00 0.00 0.00 0.00 0.00 0.00 0.01 0.00 0.00 0.01 0.00 0.00 0.00 0.00 0.00 0.00 0.01 0.01 0.01 0.00 0.00 0.03 0.05 0.06 0.11 0.18 0.11 0.03 0.02 0.03 0.03
0.00 0.00 0.00 0.00 0.00 0.00 0.01 0.01 0.02 0.01 0.00 0.01 0.00 0.00 0.01 0.00 0.00 0.01 0.00 0.00 0.00 0.01 0.00 0.02 0.04 0.02 0.06 0.11 0.06 0.01 0.01 0.00
0.04 0.02 0.02 0.01 0.02 0.03 0.04 0.06 0.04 0.02 0.02 0.02 0.00 0.00 0.00 0.01 0.00 0.01 0.00 0.00 0.00 0.01 0.01 0.00 0.00 0.00 0.01 0.02 0.04 0.01 0.00 0.01
0.14 0.07 0.07 0.10 0.12 0.09 0.11 0.09 0.05 0.07 0.07 0.05 0.02 0.01 0.01 0.01 0.01 0.01 0.01 0.01 0.01 0.01 0.02 0.01 0.00 0.00 0.00 0.00 0.01 0.01 0.00 0.00
0.25 0.20 0.17 0.18 0.26 0.39 0.43 0.37 0.29 0.29 0.30 0.29 0.20 0.11 0.06 0.04 0.01 0.02 0.01 0.01 0.02 0.01 0.02 0.02 0.01 0.01 0.00 0.01 0.01 0.01 0.00 0.00
0.47 0.33 0.30 0.27 0.27 0.32 0.39 0.42 0.45 0.44 0.46 0.46 0.34 0.14 0.11 0.07 0.07 0.04 0.01 0.01 0.01 0.01 0.01 0.01 0.02 0.03 0.02 0.01 0.00 0.01 0.01 0.00
0.86 0.61 0.38 0.35 0.29 0.25 0.26 0.32 0.34 0.36 0.33 0.38 0.33 0.21 0.11 0.06 0.09 0.13 0.07 0.05 0.03 0.02 0.02 0.02 0.02 0.01 0.02 0.01 0.01 0.01 0.01 0.00
0.93 0.85 0.57 0.39 0.38 0.29 0.32 0.31 0.37 0.34 0.34 0.37 0.32 0.24 0.21 0.16 0.17 0.14 0.12 0.13 0.13 0.11 0.10 0.10 0.11 0.14 0.21 0.12 0.10 0.02 0.02 0.02
1.11 1.17 0.84 0.47 0.34 0.26 0.25 0.28 0.30 0.48 0.46 0.53 0.48 0.39 0.27 0.24 0.21 0.16 0.15 0.16 0.15 0.15 0.13 0.15 0.15 0.20 0.26 0.25 0.24 0.11 0.06 0.10

GFSFLT1_prec_precacc24_102.txt.gz
Total_Precipitation_Accumulation
0.00 0.00 0.00 0.00 0.00 0.00 0.00 0.00 0.01 0.01 0.00 0.01 0.01 0.02 0.03 0.08 0.09 0.25 0.49 1.00 0.69 0.58 0.62 0.49 0.41 0.31 0.22 0.11 0.06 0.13 0.16 0.15
0.00 0.00 0.00 0.00 0.00 0.00 0.00 0.00 0.01 0.01 0.01 0.00 0.02 0.02 0.03 0.05 0.07 0.29 0.42 0.74 0.87 0.62 0.62 0.57 0.43 0.27 0.18 0.11 0.04 0.07 0.20 0.19
0.00 0.00 0.00 0.00 0.00 0.00 0.00 0.00 0.00 0.01 0.01 0.00 0.00 0.01 0.02 0.03 0.05 0.16 0.64 0.66 0.70 0.62 0.63 0.52 0.40 0.36 0.33 0.21 0.06 0.06 0.15 0.18
0.00 0.00 0.00 0.00 0.00 0.00 0.00 0.00 0.00 0.01 0.01 0.01 0.00 0.01 0.02 0.03 0.05 0.10 0.35 0.42 0.52 0.50 0.58 0.59 0.42 0.43 0.46 0.31 0.09 0.04 0.06 0.16
0.00 0.00 0.00 0.00 0.00 0.00 0.00 0.00 0.00 0.00 0.01 0.01 0.00 0.00 0.01 0.01 0.01 0.04 0.11 0.20 0.35 0.43 0.42 0.53 0.38 0.42 0.39 0.31 0.15 0.08 0.06 0.07
0.00 0.00 0.00 0.00 0.00 0.00 0.00 0.00 0.00 0.00 0.01 0.01 0.01 0.00 0.00 0.01 0.01 0.02 0.05 0.11 0.23 0.39 0.46 0.50 0.44 0.41 0.33 0.22 0.17 0.12 0.08 0.05
0.00 0.00 0.00 0.00 0.00 0.00 0.00 0.00 0.00 0.01 0.01 0.01 0.01 0.00 0.00 0.01 0.01 0.02 0.02 0.05 0.11 0.27 0.52 0.52 0.49 0.46 0.43 0.24 0.16 0.13 0.12 0.11
0.00 0.00 0.00 0.00 0.00 0.00 0.00 0.00 0.00 0.00 0.01 0.01 0.01 0.00 0.00 0.00 0.01 0.01 0.01 0.02 0.03 0.08 0.18 0.37 0.41 0.45 0.42 0.37 0.26 0.19 0.18 0.14
0.00 0.00 0.00 0.00 0.00 0.00 0.00 0.00 0.00 0.00 0.01 0.01 0.01 0.00 0.00 0.00 0.00 0.01 0.01 0.01 0.01 0.02 0.04 0.13 0.29 0.42 0.35 0.34 0.31 0.20 0.18 0.15
0.00 0.00 0.00 0.00 0.00 0.00 0.00 0.00 0.00 0.00 0.00 0.01 0.01 0.01 0.00 0.00 0.00 0.01 0.01 0.02 0.01 0.02 0.02 0.06 0.18 0.27 0.31 0.25 0.26 0.25 0.21 0.17
0.00 0.00 0.00 0.00 0.00 0.00 0.00 0.01 0.00 0.01 0.01 0.01 0.01 0.01 0.00 0.00 0.00 0.00 0.01 0.02 0.00 0.00 0.03 0.05 0.06 0.12 0.21 0.18 0.12 0.11 0.13 0.10
0.00 0.00 0.00 0.00 0.00 0.00 0.04 0.03 0.02 0.01 0.01 0.01 0.01 0.01 0.01 0.00 0.00 0.01 0.00 0.01 0.00 0.01 0.00 0.02 0.04 0.03 0.07 0.12 0.09 0.05 0.02 0.02
0.04 0.02 0.02 0.02 0.03 0.05 0.07 0.08 0.05 0.03 0.03 0.03 0.02 0.01 0.01 0.01 0.00 0.01 0.00 0.01 0.01 0.01 0.01 0.00 0.00 0.01 0.01 0.03 0.07 0.06 0.07 0.04
0.14 0.07 0.07 0.12 0.13 0.11 0.14 0.16 0.10 0.09 0.08 0.07 0.04 0.03 0.01 0.01 0.01 0.02 0.01 0.01 0.01 0.02 0.03 0.01 0.00 0.00 0.01 0.02 0.01 0.02 0.02 0.01
0.25 0.20 0.17 0.20 0.28 0.40 0.47 0.44 0.36 0.35 0.33 0.31 0.23 0.14 0.08 0.05 0.01 0.03 0.01 0.01 0.02 0.02 0.03 0.02 0.02 0.01 0.01 0.02 0.02 0.02 0.01 0.00
0.47 0.33 0.31 0.30 0.31 0.35 0.43 0.48 0.54 0.54 0.54 0.54 0.42 0.20 0.15 0.10 0.08 0.06 0.02 0.02 0.02 0.02 0.03 0.05 0.04 0.03 0.02 0.01 0.00 0.01 0.01 0.00
0.86 0.61 0.40 0.41 0.38 0.35 0.33 0.38 0.44 0.48 0.44 0.47 0.43 0.30 0.17 0.10 0.10 0.14 0.09 0.06 0.04 0.03 0.03 0.02 0.03 0.02 0.05 0.01 0.01 0.01 0.01 0.01
0.94 0.86 0.62 0.52 0.58 0.50 0.48 0.44 0.49 0.46 0.46 0.50 0.42 0.32 0.27 0.19 0.19 0.16 0.13 0.13 0.14 0.12 0.12 0.10 0.11 0.15 0.23 0.13 0.11 0.03 0.05 0.07
1.12 1.17 0.86 0.60 0.59 0.56 0.48 0.46 0.46 0.62 0.60 0.69 0.65 0.51 0.35 0.29 0.25 0.20 0.17 0.16 0.16 0.16 0.14 0.16 0.15 0.21 0.27 0.25 0.24 0.11 0.06 0.10

GFSFLT1_prec_precacc24_105.txt.gz
Total_Precipitation_Accumulation
0.00 0.00 0.00 0.00 0.00 0.00 0.00 0.00 0.00 0.00 0.00 0.01 0.01 0.02 0.03 0.07 0.09 0.24 0.48 1.00 0.69 0.58 0.61 0.43 0.35 0.30 0.28 0.19 0.10 0.14 0.17 0.16
0.00 0.00 0.00 0.00 0.00 0.00 0.00 0.00 0.00 0.01 0.00 0.00 0.02 0.02 0.03 0.05 0.07 0.28 0.42 0.74 0.87 0.62 0.62 0.50 0.40 0.25 0.17 0.13 0.09 0.08 0.20 0.20
0.00 0.00 0.00 0.00 0.00 0.00 0.00 0.00 0.00 0.01 0.00 0.00 0.00 0.01 0.02 0.03 0.05 0.16 0.64 0.66 0.70 0.62 0.63 0.52 0.40 0.35 0.34 0.23 0.09 0.07 0.15 0.20
0.00 0.00 0.00 0.00 0.00 0.00 0.00 0.00 0.00 0.01 0.00 0.00 0.00 0.01 0.02 0.02 0.05 0.10 0.35 0.42 0.52 0.50 0.58 0.59 0.42 0.43 0.46 0.36 0.17 0.07 0.07 0.19
0.00 0.00 0.00 0.00 0.00 0.00 0.00 0.01 0.03 0.01 0.01 0.00 0.00 0.00 0.01 0.01 0.01 0.04 0.11 0.20 0.35 0.43 0.42 0.53 0.38 0.42 0.41 0.46 0.39 0.29 0.14 0.12
0.00 0.00 0.00 0.00 0.00 0.00 0.00 0.00 0.04 0.04 0.01 0.00 0.00 0.00 0.00 0.01 0.01 0.02 0.05 0.11 0.23 0.39 0.46 0.50 0.44 0.42 0.36 0.32 0.44 0.38 0.29 0.09
0.00 0.00 0.00 0.00 0.00 0.00 0.00 0.00 0.00 0.02 0.01 0.00 0.00 0.00 0.00 0.01 0.01 0.02 0.02 0.05 0.11 0.27 0.52 0.52 0.49 0.46 0.50 0.38 0.34 0.34 0.20 0.16
0.00 0.00 0.00 0.00 0.00 0.00 0.00 0.00 0.00 0.01 0.01 0.01 0.00 0.00 0.00 0.00 0.01 0.01 0.01 0.02 0.03 0.08 0.19 0.38 0.41 0.46 0.48 0.56 0.46 0.30 0.25 0.18
0.00 0.00 0.00 0.00 0.00 0.00 0.00 0.00 0.00 0.01 0.01 0.01 0.01 0.01 0.00 0.00 0.00 0.01 0.01 0.01 0.01 0.02 0.04 0.13 0.29 0.43 0.39 0.48 0.56 0.36 0.27 0.22
0.00 0.00 0.00 0.00 0.00 0.00 0.00 0.00 0.00 0.01 0.00 0.01 0.01 0.05 0.01 0.00 0.00 0.01 0.01 0.02 0.01 0.02 0.02 0.06 0.18 0.27 0.32 0.32 0.46 0.44 0.36 0.31
0.00 0.00 0.00 0.00 0.00 0.00 0.00 0.01 0.00 0.01 0.01 0.03 0.05 0.08 0.05 0.02 0.00 0.00 0.01 0.02 0.01 0.00 0.03 0.05 0.06 0.12 0.21 0.18 0.20 0.31 0.33 0.26
0.00 0.00 0.00 0.00 0.01 0.02 0.05 0.03 0.02 0.02 0.03 0.05 0.06 0.06 0.06 0.03 0.00 0.01 0.00 0.01 0.00 0.01 0.00 0.02 0.04 0.03 0.07 0.13 0.12 0.13 0.13 0.12
0.04 0.02 0.02 0.02 0.04 0.08 0.09 0.09 0.07 0.05 0.06 0.05 0.04 0.05 0.04 0.02 0.00 0.01 0.01 0.01 0.01 0.01 0.01 0.00 0.00 0.01 0.01 0.03 0.08 0.07 0.09 0.07
0.14 0.07 0.07 0.11 0.13 0.15 0.16 0.16 0.13 0.16 0.12 0.08 0.04 0.07 0.06 0.04 0.02 0.02 0.01 0.01 0.01 0.02 0.03 0.01 0.01 0.01 0.04 0.03 0.03 0.04 0.04 0.07
0.25 0.20 0.17 0.20 0.27 0.39 0.49 0.47 0.40 0.42 0.44 0.35 0.25 0.22 0.17 0.09 0.03 0.03 0.02 0.02 0.02 0.02 0.03 0.03 0.02 0.01 0.02 0.05 0.05 0.04 0.02 0.02
0.47 0.33 0.31 0.30 0.31 0.34 0.39 0.49 0.62 0.64 0.64 0.61 0.47 0.25 0.33 0.20 0.13 0.07 0.04 0.04 0.04 0.03 0.04 0.05 0.04 0.03 0.03 0.04 0.04 0.05 0.04 0.03
0.86 0.61 0.40 0.41 0.39 0.38 0.40 0.40 0.43 0.50 0.53 0.57 0.50 0.35 0.24 0.19 0.19 0.19 0.13 0.08 0.05 0.05 0.05 0.04 0.03 0.02 0.07 0.03 0.02 0.02 0.03 0.06
0.94 0.86 0.62 0.52 0.58 0.53 0.59 0.59 0.58 0.53 0.51 0.60 0.55 0.40 0.34 0.27 0.28 0.20 0.21 0.17 0.17 0.16 0.16 0.15 0.14 0.16 0.24 0.14 0.12 0.04 0.07 0.09
1.12 1.17 0.86 0.61 0.60 0.58 0.58 0.61 0.62 0.80 0.77 0.78 0.78 0.62 0.46 0.37 0.36 0.29 0.24 0.25 0.20 0.23 0.22 0.21 0.20 0.26 0.32 0.30 0.30 0.14 0.11 0.14

GFSFLT1_prec_precacc24_111.txt.gz
Total_Precipitation_Accumulation
0.00 0.00 0.00 0.00 0.00 0.00 0.00 0.00 0.00 0.00 0.00 0.01 0.01 0.01 0.02 0.03 0.03 0.08 0.38 0.84 0.58 0.55 0.59 0.43 0.35 0.30 0.29 0.19 0.12 0.16 0.18 0.19
0.00 0.00 0.00 0.00 0.00 0.00 0.00 0.00 0.00 0.00 0.00 0.00 0.01 0.01 0.02 0.03 0.04 0.14 0.23 0.63 0.79 0.58 0.59 0.49 0.40 0.26 0.18 0.14 0.12 0.13 0.23 0.23
0.00 0.00 0.00 0.00 0.00 0.00 0.00 0.00 0.00 0.00 0.00 0.00 0.00 0.01 0.01 0.02 0.03 0.09 0.44 0.50 0.62 0.57 0.59 0.51 0.39 0.35 0.34 0.24 0.10 0.08 0.16 0.22
0.00 0.00 0.00 0.00 0.00 0.00 0.00 0.00 0.00 0.00 0.00 0.01 0.00 0.01 0.03 0.03 0.03 0.05 0.21 0.34 0.46 0.44 0.49 0.56 0.42 0.42 0.46 0.37 0.18 0.09 0.08 0.20
0.00 0.00 0.00 0.00 0.00 0.00 0.00 0.02 0.05 0.03 0.08 0.04 0.03 0.01 0.00 0.01 0.01 0.03 0.06 0.16 0.31 0.40 0.35 0.48 0.37 0.40 0.41 0.46 0.40 0.31 0.20 0.20
0.00 0.00 0.00 0.00 0.00 0.00 0.00 0.02 0.08 0.11 0.09 0.09 0.13 0.04 0.03 0.01 0.03 0.03 0.05 0.09 0.22 0.37 0.44 0.48 0.43 0.39 0.37 0.33 0.47 0.44 0.41 0.27
0.00 0.00 0.00 0.00 0.00 0.00 0.00 0.00 0.01 0.05 0.07 0.05 0.03 0.03 0.01 0.02 0.02 0.02 0.02 0.04 0.10 0.26 0.51 0.52 0.50 0.46 0.48 0.39 0.36 0.43 0.38 0.42
0.00 0.00 0.00 0.00 0.00 0.00 0.00 0.00 0.00 0.01 0.01 0.03 0.04 0.09 0.01 0.00 0.01 0.01 0.01 0.02 0.03 0.08 0.19 0.38 0.42 0.47 0.47 0.55 0.50 0.43 0.56 0.50
0.00 0.00 0.00 0.00 0.00 0.00 0.00 0.00 0.00 0.01 0.01 0.01 0.03 0.05 0.04 0.03 0.00 0.01 0.02 0.01 0.01 0.02 0.04 0.14 0.30 0.43 0.40 0.48 0.61 0.52 0.47 0.67
0.00 0.00 0.00 0.00 0.00 0.00 0.00 0.00 0.00 0.01 0.00 0.01 0.02 0.07 0.05 0.02 0.03 0.04 0.03 0.02 0.02 0.03 0.03 0.06 0.19 0.27 0.33 0.33 0.48 0.53 0.51 0.49
0.01 0.00 0.00 0.00 0.00 0.00 0.00 0.01 0.00 0.01 0.01 0.04 0.08 0.15 0.14 0.10 0.04 0.02 0.05 0.06 0.03 0.02 0.03 0.05 0.06 0.13 0.22 0.19 0.22 0.33 0.48 0.46
0.07 0.03 0.00 0.00 0.01 0.02 0.06 0.04 0.02 0.02 0.05 0.09 0.11 0.14 0.14 0.14 0.10 0.06 0.06 0.07 0.04 0.03 0.01 0.02 0.05 0.03 0.08 0.14 0.13 0.16 0.20 0.39
0.06 0.04 0.02 0.02 0.04 0.08 0.12 0.12 0.10 0.07 0.08 0.10 0.12 0.18 0.16 0.14 0.12 0.08 0.07 0.08 0.08 0.06 0.02 0.00 0.01 0.02 0.02 0.05 0.09 0.10 0.14 0.16
0.14 0.07 0.07 0.09 0.11 0.11 0.15 0.21 0.20 0.19 0.14 0.12 0.12 0.14 0.15 0.13 0.13 0.14 0.11 0.09 0.07 0.07 0.06 0.02 0.02 0.01 0.04 0.04 0.04 0.05 0.04 0.13
0.24 0.19 0.14 0.15 0.19 0.22 0.30 0.36 0.38 0.41 0.47 0.39 0.27 0.25 0.22 0.17 0.10 0.11 0.09 0.08 0.06 0.04 0.06 0.05 0.04 0.02 0.03 0.05 0.05 0.06 0.03 0.02
0.47 0.32 0.30 0.28 0.30 0.32 0.33 0.41 0.57 0.61 0.57 0.55 0.40 0.26 0.37 0.33 0.34 0.28 0.15 0.13 0.09 0.08 0.08 0.06 0.05 0.04 0.06 0.06 0.05 0.06 0.06 0.04
0.86 0.61 0.40 0.41 0.39 0.38 0.40 0.41 0.42 0.46 0.51 0.58 0.57 0.42 0.34 0.39 0.39 0.38 0.35 0.27 0.27 0.17 0.08 0.05 0.04 0.05 0.15 0.08 0.05 0.04 0.07 0.12
0.93 0.86 0.62 0.53 0.59 0.53 0.59 0.60 0.62 0.56 0.53 0.52 0.55 0.50 0.52 0.47 0.56 0.62 0.64 0.51 0.44 0.37 0.24 0.18 0.15 0.15 0.26 0.16 0.18 0.07 0.12 0.15
1.09 1.17 0.86 0.61 0.60 0.58 0.58 0.61 0.63 0.84 0.80 0.80 0.81 0.69 0.57 0.50 0.57 0.62 0.79 0.98 0.74 0.46 0.31 0.21 0.20 0.29 0.31 0.23 0.25 0.14 0.17 0.19

GFSFLT1_prec_precacc24_114.txt.gz
Total_Precipitation_Accumulation
0.00 0.00 0.00 0.00 0.00 0.00 0.00 0.00 0.00 0.00 0.00 0.01 0.01 0.01 0.01 0.01 0.01 0.03 0.20 0.46 0.36 0.48 0.57 0.40 0.34 0.30 0.29 0.19 0.12 0.16 0.18 0.19
0.00 0.00 0.00 0.00 0.00 0.00 0.00 0.00 0.00 0.00 0.00 0.00 0.01 0.01 0.02 0.02 0.02 0.04 0.12 0.46 0.53 0.50 0.56 0.47 0.40 0.26 0.18 0.14 0.12 0.13 0.23 0.23
0.00 0.00 0.00 0.00 0.00 0.00 0.00 0.00 0.00 0.00 0.00 0.02 0.01 0.00 0.01 0.01 0.02 0.05 0.19 0.41 0.43 0.44 0.53 0.48 0.39 0.35 0.34 0.24 0.10 0.08 0.16 0.24
0.00 0.00 0.00 0.00 0.00 0.00 0.00 0.00 0.00 0.02 0.03 0.03 0.03 0.03 0.03 0.04 0.02 0.04 0.09 0.17 0.34 0.28 0.39 0.49 0.40 0.42 0.47 0.37 0.18 0.09 0.09 0.21
0.00 0.00 0.00 0.00 0.00 0.00 0.00 0.02 0.04 0.02 0.08 0.05 0.05 0.02 0.01 0.00 0.01 0.03 0.04 0.07 0.19 0.26 0.20 0.39 0.34 0.39 0.41 0.47 0.40 0.32 0.22 0.21
0.00 0.00 0.00 0.00 0.00 0.00 0.00 0.01 0.08 0.12 0.09 0.10 0.13 0.06 0.06 0.02 0.04 0.04 0.06 0.03 0.15 0.24 0.35 0.37 0.39 0.38 0.37 0.33 0.47 0.45 0.43 0.29
0.00 0.00 0.00 0.00 0.00 0.00 0.00 0.00 0.01 0.05 0.08 0.07 0.04 0.03 0.01 0.02 0.02 0.03 0.02 0.03 0.05 0.18 0.40 0.47 0.46 0.45 0.48 0.39 0.36 0.44 0.39 0.43
0.00 0.00 0.00 0.00 0.00 0.00 0.00 0.01 0.01 0.01 0.03 0.05 0.07 0.10 0.02 0.01 0.02 0.01 0.01 0.02 0.02 0.06 0.14 0.34 0.38 0.47 0.48 0.55 0.51 0.44 0.58 0.52
0.01 0.00 0.00 0.00 0.00 0.00 0.00 0.00 0.00 0.01 0.02 0.03 0.04 0.06 0.04 0.04 0.01 0.01 0.02 0.01 0.02 0.02 0.04 0.13 0.29 0.42 0.40 0.49 0.61 0.53 0.48 0.68
0.02 0.01 0.00 0.00 0.00 0.00 0.00 0.00 0.00 0.01 0.00 0.01 0.03 0.08 0.05 0.03 0.06 0.08 0.09 0.08 0.05 0.06 0.05 0.06 0.19 0.27 0.33 0.33 0.49 0.54 0.51 0.49
0.02 0.02 0.01 0.00 0.00 0.00 0.01 0.01 0.00 0.01 0.01 0.04 0.08 0.14 0.14 0.11 0.05 0.03 0.06 0.09 0.08 0.05 0.06 0.07 0.07 0.13 0.22 0.20 0.23 0.34 0.48 0.45
0.09 0.05 0.05 0.01 0.01 0.02 0.06 0.04 0.02 0.02 0.05 0.09 0.10 0.13 0.14 0.14 0.10 0.07 0.06 0.08 0.06 0.05 0.04 0.04 0.06 0.04 0.08 0.14 0.13 0.16 0.20 0.40
0.23 0.16 0.10 0.09 0.05 0.08 0.11 0.10 0.08 0.07 0.08 0.10 0.12 0.19 0.16 0.14 0.13 0.09 0.08 0.09 0.11 0.11 0.09 0.04 0.03 0.05 0.05 0.06 0.09 0.10 0.14 0.16
0.25 0.21 0.12 0.11 0.11 0.11 0.12 0.17 0.18 0.18 0.14 0.12 0.13 0.15 0.16 0.15 0.15 0.16 0.14 0.12 0.10 0.11 0.11 0.07 0.05 0.05 0.09 0.05 0.04 0.05 0.04 0.13
0.21 0.18 0.13 0.13 0.16 0.16 0.21 0.27 0.30 0.34 0.38 0.33 0.21 0.23 0.23 0.20 0.14 0.14 0.13 0.13 0.11 0.09 0.11 0.11 0.10 0.05 0.04 0.06 0.05 0.06 0.03 0.02
0.45 0.29 0.24 0.21 0.21 0.22 0.24 0.34 0.52 0.55 0.50 0.50 0.36 0.25 0.36 0.34 0.35 0.29 0.16 0.15 0.13 0.11 0.13 0.13 0.13 0.13 0.13 0.09 0.05 0.06 0.06 0.04
0.86 0.61 0.39 0.39 0.37 0.35 0.37 0.39 0.42 0.45 0.49 0.55 0.56 0.42 0.34 0.39 0.39 0.37 0.33 0.25 0.27 0.25 0.19 0.18 0.18 0.16 0.29 0.19 0.07 0.04 0.07 0.13
0.91 0.85 0.62 0.52 0.57 0.51 0.58 0.59 0.62 0.56 0.53 0.52 0.54 0.49 0.51 0.46 0.55 0.62 0.63 0.53 0.54 0.54 0.56 0.52 0.37 0.29 0.36 0.27 0.20 0.07 0.13 0.16
0.93 1.11 0.84 0.61 0.59 0.58 0.58 0.61 0.63 0.84 0.80 0.80 0.81 0.69 0.56 0.50 0.57 0.62 0.80 1.00 0.80 0.63 0.63 0.60 0.61 0.60 0.42 0.28 0.24 0.10 0.17 0.21

GFSFLT1_prec_precacc24_117.txt.gz
Total_Precipitation_Accumulation
0.00 0.00 0.00 0.00 0.00 0.00 0.00 0.00 0.00 0.00 0.00 0.01 0.00 0.00 0.00 0.00 0.00 0.01 0.04 0.05 0.12 0.28 0.39 0.36 0.25 0.23 0.27 0.19 0.12 0.16 0.18 0.19
0.00 0.00 0.00 0.00 0.00 0.00 0.00 0.00 0.00 0.00 0.00 0.00 0.01 0.02 0.01 0.01 0.01 0.02 0.05 0.09 0.20 0.38 0.50 0.43 0.36 0.24 0.17 0.14 0.12 0.13 0.23 0.23
0.00 0.00 0.00 0.00 0.00 0.00 0.00 0.01 0.00 0.00 0.00 0.09 0.07 0.04 0.01 0.01 0.01 0.03 0.06 0.19 0.25 0.34 0.52 0.47 0.38 0.35 0.34 0.24 0.10 0.08 0.16 0.24
0.00 0.00 0.00 0.00 0.00 0.00 0.00 0.00 0.01 0.07 0.16 0.15 0.09 0.04 0.04 0.03 0.02 0.03 0.03 0.07 0.22 0.14 0.36 0.48 0.40 0.42 0.47 0.37 0.18 0.09 0.09 0.22
0.00 0.00 0.00 0.00 0.00 0.00 0.00 0.02 0.07 0.14 0.27 0.07 0.10 0.05 0.01 0.00 0.01 0.02 0.02 0.02 0.09 0.11 0.13 0.35 0.32 0.39 0.41 0.47 0.41 0.33 0.22 0.22
0.01 0.00 0.00 0.00 0.00 0.00 0.00 0.01 0.08 0.13 0.11 0.11 0.14 0.07 0.08 0.02 0.04 0.04 0.05 0.03 0.01 0.08 0.14 0.26 0.32 0.36 0.36 0.33 0.47 0.45 0.43 0.29
0.02 0.00 0.00 0.00 0.00 0.00 0.00 0.00 0.01 0.05 0.08 0.08 0.05 0.04 0.02 0.02 0.02 0.03 0.02 0.02 0.03 0.09 0.15 0.26 0.34 0.38 0.44 0.37 0.36 0.44 0.39 0.44
0.04 0.01 0.00 0.00 0.00 0.00 0.00 0.00 0.01 0.01 0.03 0.05 0.07 0.11 0.03 0.02 0.02 0.01 0.01 0.01 0.01 0.06 0.10 0.20 0.27 0.40 0.45 0.52 0.50 0.44 0.58 0.52
0.05 0.02 0.00 0.00 0.00 0.00 0.00 0.00 0.00 0.01 0.01 0.04 0.05 0.07 0.06 0.05 0.01 0.03 0.07 0.03 0.02 0.02 0.03 0.09 0.24 0.41 0.40 0.48 0.62 0.53 0.49 0.69
0.03 0.03 0.01 0.01 0.00 0.00 0.00 0.00 0.00 0.01 0.00 0.02 0.03 0.09 0.06 0.06 0.11 0.16 0.12 0.12 0.11 0.11 0.09 0.06 0.16 0.25 0.33 0.33 0.50 0.55 0.52 0.51
0.05 0.03 0.02 0.01 0.01 0.00 0.01 0.01 0.01 0.01 0.01 0.03 0.08 0.15 0.16 0.15 0.15 0.11 0.17 0.16 0.18 0.19 0.16 0.10 0.08 0.16 0.24 0.20 0.23 0.34 0.49 0.47
0.22 0.09 0.06 0.02 0.02 0.03 0.06 0.04 0.02 0.02 0.05 0.09 0.10 0.13 0.14 0.14 0.12 0.09 0.12 0.15 0.17 0.14 0.18 0.15 0.14 0.09 0.10 0.16 0.14 0.17 0.21 0.40
0.39 0.25 0.12 0.11 0.07 0.08 0.10 0.10 0.07 0.06 0.08 0.10 0.12 0.18 0.16 0.14 0.13 0.09 0.09 0.10 0.14 0.17 0.17 0.14 0.11 0.10 0.10 0.09 0.11 0.11 0.15 0.17
0.50 0.42 0.21 0.14 0.16 0.12 0.11 0.16 0.18 0.17 0.13 0.12 0.13 0.15 0.16 0.15 0.15 0.16 0.14 0.14 0.12 0.13 0.14 0.09 0.07 0.09 0.13 0.09 0.07 0.06 0.05 0.13
0.31 0.26 0.27 0.15 0.15 0.14 0.18 0.22 0.24 0.29 0.30 0.23 0.17 0.22 0.23 0.20 0.14 0.14 0.14 0.14 0.14 0.13 0.15 0.15 0.13 0.09 0.09 0.11 0.09 0.08 0.05 0.04
0.25 0.20 0.19 0.16 0.16 0.17 0.19 0.25 0.41 0.47 0.41 0.40 0.30 0.23 0.35 0.33 0.35 0.30 0.17 0.16 0.16 0.16 0.16 0.17 0.17 0.20 0.23 0.20 0.16 0.16 0.11 0.05
0.64 0.52 0.32 0.31 0.30 0.29 0.32 0.33 0.35 0.39 0.44 0.48 0.50 0.38 0.32 0.39 0.38 0.36 0.33 0.25 0.27 0.26 0.20 0.19 0.21 0.18 0.41 0.34 0.27 0.24 0.22 0.20
0.86 0.86 0.63 0.53 0.56 0.50 0.54 0.53 0.49 0.44 0.39 0.46 0.50 0.46 0.48 0.45 0.54 0.61 0.62 0.51 0.50 0.50 0.53 0.51 0.37 0.28 0.45 0.38 0.38 0.26 0.30 0.30
0.62 0.93 0.79 0.61 0.59 0.56 0.56 0.56 0.56 0.66 0.67 0.76 0.77 0.64 0.54 0.49 0.56 0.62 0.80 0.99 0.78 0.62 0.62 0.61 0.64 0.66 0.60 0.53 0.63 0.51 0.51 0.40

GFSFLT1_prec_precacc24_123.txt.gz
Total_Precipitation_Accumulation
0.00 0.00 0.00 0.00 0.00 0.00 0.00 0.00 0.00 0.01 0.05 0.02 0.00 0.00 0.00 0.00 0.00 0.00 0.00 0.01 0.00 0.02 0.02 0.07 0.09 0.09 0.12 0.10 0.07 0.05 0.07 0.16
0.00 0.00 0.00 0.00 0.00 0.00 0.00 0.00 0.00 0.03 0.09 0.05 0.01 0.02 0.00 0.00 0.00 0.00 0.00 0.00 0.01 0.03 0.02 0.01 0.04 0.04 0.02 0.05 0.09 0.07 0.12 0.17
0.00 0.00 0.00 0.00 0.00 0.00 0.00 0.01 0.00 0.01 0.02 0.13 0.10 0.04 0.00 0.00 0.00 0.00 0.00 0.00 0.01 0.03 0.02 0.00 0.04 0.10 0.08 0.06 0.05 0.03 0.10 0.19
0.00 0.00 0.00 0.00 0.00 0.00 0.00 0.01 0.01 0.07 0.16 0.17 0.15 0.06 0.04 0.02 0.00 0.00 0.00 0.00 0.01 0.01 0.00 0.03 0.13 0.18 0.29 0.23 0.13 0.06 0.07 0.18
0.01 0.00 0.00 0.00 0.00 0.00 0.00 0.02 0.09 0.17 0.30 0.09 0.16 0.06 0.01 0.00 0.00 0.00 0.01 0.00 0.00 0.00 0.00 0.04 0.11 0.16 0.22 0.35 0.36 0.31 0.21 0.22
0.04 0.02 0.01 0.00 0.00 0.00 0.00 0.02 0.12 0.22 0.23 0.17 0.24 0.15 0.08 0.02 0.03 0.03 0.04 0.03 0.00 0.00 0.00 0.01 0.09 0.16 0.18 0.24 0.44 0.42 0.42 0.28
0.10 0.10 0.08 0.06 0.04 0.02 0.01 0.01 0.05 0.21 0.29 0.33 0.31 0.36 0.20 0.10 0.03 0.02 0.01 0.01 0.01 0.00 0.01 0.02 0.09 0.16 0.27 0.31 0.34 0.42 0.38 0.42
0.14 0.18 0.25 0.20 0.16 0.13 0.06 0.03 0.09 0.17 0.35 0.44 0.38 0.65 0.75 0.55 0.33 0.11 0.03 0.05 0.02 0.01 0.01 0.02 0.06 0.17 0.29 0.45 0.46 0.40 0.55 0.51
0.26 0.54 0.31 0.23 0.24 0.26 0.17 0.07 0.12 0.17 0.27 0.40 0.44 0.43 0.47 0.52 0.71 0.72 0.16 0.04 0.02 0.04 0.09 0.11 0.12 0.19 0.25 0.38 0.52 0.46 0.44 0.67
0.40 0.40 0.21 0.20 0.39 0.32 0.31 0.18 0.12 0.18 0.17 0.25 0.37 0.37 0.34 0.49 0.35 0.50 0.28 0.16 0.15 0.18 0.22 0.17 0.15 0.23 0.28 0.33 0.44 0.50 0.49 0.49
0.35 0.51 0.20 0.16 0.33 0.14 0.18 0.20 0.13 0.12 0.16 0.19 0.29 0.35 0.37 0.52 0.49 0.28 0.25 0.21 0.24 0.29 0.31 0.24 0.14 0.31 0.43 0.36 0.40 0.51 0.62 0.52
0.46 0.39 0.24 0.13 0.14 0.14 0.22 0.18 0.12 0.07 0.10 0.15 0.19 0.29 0.35 0.52 0.48 0.25 0.22 0.24 0.27 0.27 0.33 0.29 0.16 0.18 0.33 0.33 0.30 0.31 0.33 0.54
0.72 0.48 0.31 0.21 0.14 0.12 0.30 0.38 0.31 0.20 0.09 0.09 0.13 0.21 0.31 0.24 0.24 0.14 0.13 0.16 0.25 0.29 0.23 0.20 0.17 0.15 0.17 0.18 0.20 0.22 0.21 0.19
0.86 0.67 0.41 0.24 0.17 0.14 0.18 0.30 0.43 0.45 0.21 0.10 0.12 0.15 0.17 0.15 0.14 0.15 0.14 0.13 0.12 0.16 0.20 0.16 0.16 0.15 0.19 0.16 0.13 0.12 0.11 0.18
0.61 0.57 0.49 0.31 0.22 0.15 0.15 0.16 0.20 0.24 0.25 0.16 0.11 0.20 0.22 0.19 0.13 0.12 0.13 0.13 0.13 0.12 0.14 0.14 0.15 0.12 0.12 0.14 0.12 0.12 0.10 0.10
0.24 0.31 0.39 0.35 0.22 0.15 0.11 0.13 0.22 0.25 0.23 0.22 0.18 0.18 0.34 0.32 0.33 0.28 0.16 0.15 0.15 0.14 0.17 0.18 0.17 0.20 0.25 0.21 0.18 0.18 0.16 0.15
0.02 0.04 0.11 0.22 0.17 0.16 0.16 0.14 0.16 0.18 0.26 0.32 0.31 0.26 0.28 0.37 0.37 0.36 0.32 0.24 0.26 0.25 0.19 0.20 0.21 0.21 0.48 0.37 0.30 0.27 0.33 0.48
0.03 0.05 0.09 0.17 0.23 0.25 0.28 0.29 0.27 0.25 0.21 0.26 0.32 0.31 0.35 0.36 0.50 0.58 0.59 0.49 0.49 0.47 0.50 0.47 0.30 0.22 0.41 0.38 0.39 0.27 0.33 0.44
0.02 0.03 0.05 0.16 0.27 0.33 0.33 0.33 0.34 0.37 0.36 0.30 0.37 0.36 0.35 0.34 0.42 0.52 0.73 0.94 0.74 0.58 0.58 0.56 0.60 0.58 0.53 0.50 0.61 0.50 0.51 0.43